BAW282 KLAX-EGLL

Flight info

Callsign BAW282
Flight time 9h 40m
Altitude 37000
Route ORCKA5 LAS DCT BCE DCT MBW DCT DPR DCT GABOV/N0490F390 DCT KEMSA DCT JELCO/M083F390 DCT LIBOR DCT 63N050W/M084F410 63N040W 62N030W 60N020W DCT GOMUP/N0483F410 DCT GINGA DCT KELLY L10 WAL UY53 NUGRA
Aircraft B772/H-SDE2E3FGHIJ5LORVWXY/LB1D1

Departure

Time 2026-05-04 22:00
Airport Los Angeles International Airport (KLAX)

Arrival

Time 2026-05-05 07:41
Airport London Heathrow Airport (EGLL)
Time Latitude Longitude Altitude Speed Heading
2026-05-04 21:43 33.94262 -118.41120 126 ft 0 kts 83°
2026-05-04 21:52 33.94262 -118.41121 126 ft 0 kts 83°
2026-05-04 21:53 33.94260 -118.41136 124 ft 3 kts 83°
2026-05-04 21:53 33.94259 -118.41151 125 ft 3 kts 83°
2026-05-04 21:53 33.94257 -118.41165 125 ft 0 kts 95°
2026-05-04 21:53 33.94257 -118.41178 124 ft 3 kts 70°
2026-05-04 21:54 33.94251 -118.41192 132 ft 3 kts 40°
2026-05-04 21:54 33.94234 -118.41203 124 ft 3 kts 356°
2026-05-04 21:54 33.94230 -118.41203 124 ft 0 kts 352°
2026-05-04 21:55 33.94238 -118.41204 124 ft 5 kts 352°
2026-05-04 21:56 33.94312 -118.41220 127 ft 14 kts 350°
2026-05-04 21:56 33.94406 -118.41237 127 ft 14 kts 350°
2026-05-04 21:56 33.94500 -118.41256 128 ft 14 kts 351°
2026-05-04 21:56 33.94594 -118.41271 127 ft 15 kts 352°
2026-05-04 21:57 33.94709 -118.41290 127 ft 17 kts 353°
2026-05-04 21:57 33.94804 -118.41201 125 ft 23 kts 81°
2026-05-04 21:57 33.94823 -118.41012 128 ft 23 kts 83°
2026-05-04 21:57 33.94843 -118.40820 130 ft 23 kts 82°
2026-05-04 21:58 33.94863 -118.40627 125 ft 23 kts 83°
2026-05-04 21:58 33.94883 -118.40438 127 ft 23 kts 83°
2026-05-04 21:58 33.94902 -118.40246 126 ft 23 kts 82°
2026-05-04 21:58 33.94922 -118.40054 130 ft 23 kts 83°
2026-05-04 21:59 33.94995 -118.39926 125 ft 19 kts 356°
2026-05-04 21:59 33.95034 -118.40022 126 ft 14 kts 266°
2026-05-04 21:59 33.95019 -118.40153 125 ft 26 kts 263°
2026-05-04 21:59 33.94956 -118.40746 127 ft 116 kts 263°
2026-05-04 22:00 33.94839 -118.42022 274 ft 180 kts 263°
2026-05-04 22:00 33.94675 -118.43669 907 ft 210 kts 260°
2026-05-04 22:00 33.94465 -118.45356 1993 ft 196 kts 260°
2026-05-04 22:00 33.94290 -118.46984 2447 ft 203 kts 264°
2026-05-04 22:01 33.94221 -118.48742 2638 ft 222 kts 267°
2026-05-04 22:01 33.94192 -118.50625 2992 ft 233 kts 269°
2026-05-04 22:01 33.94128 -118.52591 3447 ft 245 kts 264°
2026-05-04 22:01 33.93958 -118.54674 4067 ft 250 kts 263°
2026-05-04 22:02 33.93782 -118.56747 4858 ft 249 kts 264°
2026-05-04 22:02 33.93616 -118.58781 5606 ft 246 kts 264°
2026-05-04 22:02 33.93418 -118.60844 6170 ft 245 kts 258°
2026-05-04 22:02 33.92621 -118.62675 6528 ft 257 kts 225°
2026-05-04 22:03 33.91055 -118.63763 6990 ft 268 kts 200°
2026-05-04 22:03 33.89223 -118.64174 7477 ft 275 kts 185°
2026-05-04 22:03 33.87297 -118.64103 8043 ft 277 kts 179°
2026-05-04 22:03 33.85381 -118.63930 8594 ft 279 kts 179°
2026-05-04 22:04 33.83496 -118.63353 8949 ft 289 kts 154°
2026-05-04 22:04 33.81828 -118.61970 9323 ft 295 kts 148°
2026-05-04 22:04 33.80122 -118.60546 9855 ft 297 kts 149°
2026-05-04 22:04 33.78439 -118.59171 10384 ft 298 kts 150°
2026-05-04 22:05 33.76659 -118.57725 10527 ft 317 kts 149°
2026-05-04 22:05 33.74772 -118.56193 10668 ft 336 kts 149°
2026-05-04 22:05 33.72778 -118.54577 10883 ft 355 kts 150°
2026-05-04 22:05 33.70722 -118.52849 11162 ft 370 kts 143°
2026-05-04 22:06 33.69115 -118.50355 11532 ft 391 kts 116°
2026-05-04 22:06 33.68247 -118.47258 12081 ft 393 kts 109°
2026-05-04 22:06 33.67377 -118.44106 12794 ft 400 kts 111°
2026-05-04 22:06 33.66444 -118.40962 13686 ft 404 kts 112°
2026-05-04 22:07 33.65484 -118.37762 14478 ft 408 kts 112°
2026-05-04 22:07 33.64555 -118.34513 15156 ft 410 kts 109°
2026-05-04 22:07 33.64230 -118.31087 15518 ft 424 kts 90°
2026-05-04 22:07 33.64421 -118.27512 15930 ft 433 kts 90°
2026-05-04 22:08 33.64500 -118.23853 16587 ft 438 kts 92°
2026-05-04 22:08 33.64633 -118.20248 17188 ft 441 kts 82°
2026-05-04 22:08 33.65701 -118.16729 17750 ft 455 kts 58°
2026-05-04 22:08 33.67740 -118.13825 18492 ft 454 kts 42°
2026-05-04 22:09 33.70047 -118.11211 18998 ft 465 kts 42°
2026-05-04 22:09 33.72409 -118.08475 19547 ft 474 kts 43°
2026-05-04 22:09 33.74790 -118.05678 20127 ft 480 kts 43°
2026-05-04 22:09 33.77153 -118.02881 20677 ft 486 kts 43°
2026-05-04 22:10 33.79581 -117.99995 21238 ft 493 kts 43°
2026-05-04 22:10 33.82049 -117.97053 21812 ft 499 kts 43°
2026-05-04 22:10 33.84510 -117.94115 22356 ft 505 kts 43°
2026-05-04 22:10 33.87039 -117.91092 22913 ft 511 kts 43°
2026-05-04 22:11 33.89573 -117.88059 23485 ft 516 kts 43°
2026-05-04 22:11 33.92096 -117.85038 24022 ft 519 kts 43°
2026-05-04 22:11 33.94669 -117.81954 24426 ft 525 kts 43°
2026-05-04 22:11 33.97282 -117.78822 24754 ft 533 kts 43°
2026-05-04 22:12 33.99939 -117.75633 25121 ft 539 kts 43°
2026-05-04 22:12 34.02580 -117.72458 25508 ft 544 kts 43°
2026-05-04 22:12 34.05283 -117.69207 25896 ft 550 kts 43°
2026-05-04 22:12 34.08017 -117.65916 26236 ft 556 kts 43°
2026-05-04 22:13 34.10773 -117.62595 26570 ft 561 kts 43°
2026-05-04 22:13 34.13520 -117.59281 26910 ft 567 kts 43°
2026-05-04 22:13 34.16325 -117.55895 27231 ft 572 kts 43°
2026-05-04 22:13 34.19161 -117.52467 27573 ft 576 kts 43°
2026-05-04 22:14 34.22004 -117.49027 27922 ft 581 kts 43°
2026-05-04 22:14 34.24884 -117.45545 28144 ft 584 kts 43°
2026-05-04 22:14 34.27723 -117.42105 28449 ft 588 kts 44°
2026-05-04 22:14 34.30639 -117.38562 28714 ft 593 kts 44°
2026-05-04 22:15 34.33568 -117.34999 29004 ft 596 kts 44°
2026-05-04 22:15 34.36478 -117.31459 29263 ft 600 kts 44°
2026-05-04 22:15 34.39441 -117.27852 29524 ft 604 kts 44°
2026-05-04 22:15 34.42426 -117.24217 29771 ft 607 kts 44°
2026-05-04 22:16 34.45385 -117.20608 30025 ft 611 kts 44°
2026-05-04 22:16 34.48376 -117.16956 30170 ft 613 kts 44°
2026-05-04 22:16 34.51388 -117.13273 30463 ft 613 kts 44°
2026-05-04 22:16 34.54414 -117.09569 30745 ft 614 kts 44°
2026-05-04 22:17 34.57426 -117.05878 31006 ft 615 kts 44°
2026-05-04 22:17 34.60407 -117.02220 31234 ft 617 kts 44°
2026-05-04 22:17 34.63442 -116.98491 31507 ft 617 kts 45°
2026-05-04 22:17 34.66465 -116.94776 31803 ft 617 kts 45°
2026-05-04 22:18 34.69456 -116.91098 32069 ft 617 kts 45°
2026-05-04 22:18 34.72477 -116.87377 32328 ft 618 kts 45°
2026-05-04 22:18 34.75512 -116.83634 32554 ft 619 kts 45°
2026-05-04 22:18 34.78510 -116.79932 32819 ft 619 kts 45°
2026-05-04 22:19 34.81547 -116.76177 33069 ft 620 kts 45°
2026-05-04 22:19 34.84583 -116.72420 33318 ft 620 kts 46°
2026-05-04 22:19 34.87569 -116.68721 33602 ft 620 kts 46°
2026-05-04 22:19 34.90612 -116.64947 33824 ft 622 kts 46°
2026-05-04 22:20 34.93648 -116.61178 34018 ft 622 kts 46°
2026-05-04 22:20 34.96686 -116.57403 34283 ft 621 kts 46°
2026-05-04 22:20 34.99670 -116.53691 34633 ft 617 kts 45°
2026-05-04 22:20 35.02671 -116.49952 35056 ft 612 kts 45°
2026-05-04 22:21 35.05648 -116.46239 35431 ft 609 kts 45°
2026-05-04 22:21 35.08614 -116.42536 35772 ft 607 kts 45°
2026-05-04 22:21 35.11563 -116.38849 36058 ft 605 kts 45°
2026-05-04 22:21 35.14477 -116.35203 36381 ft 603 kts 45°
2026-05-04 22:22 35.17404 -116.31537 36655 ft 602 kts 45°
2026-05-04 22:22 35.20334 -116.27863 36837 ft 604 kts 45°
2026-05-04 22:22 35.23250 -116.24203 36835 ft 604 kts 44°
2026-05-04 22:23 35.29119 -116.16823 36837 ft 600 kts 44°
2026-05-04 22:23 35.34903 -116.09534 36869 ft 598 kts 45°
2026-05-04 22:24 35.40722 -116.02184 36874 ft 599 kts 45°
2026-05-04 22:24 35.46515 -115.94853 36864 ft 600 kts 44°
2026-05-04 22:25 35.52305 -115.87507 36878 ft 601 kts 44°
2026-05-04 22:25 35.58138 -115.80091 36885 ft 601 kts 44°
2026-05-04 22:26 35.63929 -115.72712 36879 ft 601 kts 44°
2026-05-04 22:26 35.69705 -115.65336 36866 ft 602 kts 44°
2026-05-04 22:27 35.75495 -115.57925 36875 ft 601 kts 44°
2026-05-04 22:27 35.81280 -115.50501 36881 ft 600 kts 44°
2026-05-04 22:28 35.87071 -115.43055 36880 ft 600 kts 44°
2026-05-04 22:28 35.92854 -115.35605 36854 ft 599 kts 44°
2026-05-04 22:29 35.98592 -115.28190 36880 ft 598 kts 44°
2026-05-04 22:29 36.04349 -115.20738 36870 ft 598 kts 44°
2026-05-04 22:30 36.09875 -115.13079 36856 ft 600 kts 53°
2026-05-04 22:30 36.14750 -115.04748 36800 ft 600 kts 54°
2026-05-04 22:31 36.19552 -114.96338 36825 ft 587 kts 53°
2026-05-04 22:31 36.21896 -114.92259 36810 ft 574 kts 52°
2026-05-04 22:31 36.24221 -114.88244 36800 ft 573 kts 52°
2026-05-04 22:32 36.28892 -114.80227 36796 ft 581 kts 52°
2026-05-04 22:32 36.33658 -114.72043 36762 ft 584 kts 52°
2026-05-04 22:33 36.38395 -114.63873 36747 ft 585 kts 52°
2026-05-04 22:33 36.43139 -114.55660 36732 ft 582 kts 52°
2026-05-04 22:34 36.47822 -114.47533 36732 ft 580 kts 52°
2026-05-04 22:34 36.52519 -114.39365 36728 ft 578 kts 52°
2026-05-04 22:35 36.57164 -114.31270 36750 ft 576 kts 52°
2026-05-04 22:35 36.61793 -114.23181 36739 ft 575 kts 52°
2026-05-04 22:36 36.66437 -114.15049 36749 ft 574 kts 52°
2026-05-04 22:36 36.71047 -114.06956 36747 ft 573 kts 52°
2026-05-04 22:37 36.75639 -113.98875 36762 ft 572 kts 52°
2026-05-04 22:37 36.80253 -113.90737 36768 ft 572 kts 52°
2026-05-04 22:38 36.84827 -113.82647 36781 ft 572 kts 52°
2026-05-04 22:38 36.89430 -113.74487 36817 ft 572 kts 52°
2026-05-04 22:39 36.93987 -113.66393 36831 ft 570 kts 52°
2026-05-04 22:39 36.98532 -113.58298 36841 ft 567 kts 53°
2026-05-04 22:40 37.03034 -113.50260 36843 ft 565 kts 53°
2026-05-04 22:40 37.06796 -113.43530 36775 ft 564 kts 53°
2026-05-04 22:41 37.11278 -113.35493 36799 ft 563 kts 52°
2026-05-04 22:41 37.16495 -113.26113 36817 ft 563 kts 52°
2026-05-04 22:42 37.20222 -113.19397 36829 ft 562 kts 52°
2026-05-04 22:42 37.24709 -113.11292 36842 ft 563 kts 53°
2026-05-04 22:43 37.29144 -113.03271 36778 ft 560 kts 53°
2026-05-04 22:43 37.33568 -112.95234 36778 ft 556 kts 53°
2026-05-04 22:44 37.37939 -112.87277 36792 ft 554 kts 53°
2026-05-04 22:44 37.42319 -112.79293 36809 ft 553 kts 53°
2026-05-04 22:45 37.46660 -112.71361 36836 ft 552 kts 53°
2026-05-04 22:45 37.53175 -112.59415 36809 ft 552 kts 53°
2026-05-04 22:46 37.57525 -112.51416 36814 ft 552 kts 53°
2026-05-04 22:46 37.61840 -112.43459 36916 ft 551 kts 53°
2026-05-04 22:47 37.66143 -112.35509 36967 ft 549 kts 53°
2026-05-04 22:47 37.70665 -112.27768 36997 ft 544 kts 45°
2026-05-04 22:48 37.75781 -112.20753 37031 ft 541 kts 43°
2026-05-04 22:48 37.80907 -112.13827 37017 ft 541 kts 43°
2026-05-04 22:49 37.86014 -112.06836 36972 ft 540 kts 44°
2026-05-04 22:49 37.91060 -111.99853 36902 ft 539 kts 44°
2026-05-04 22:50 37.96120 -111.92820 36836 ft 539 kts 44°
2026-05-04 22:50 38.01149 -111.85820 36781 ft 537 kts 44°
2026-05-04 22:51 38.06184 -111.78801 36788 ft 535 kts 44°
2026-05-04 22:51 38.11166 -111.71842 36785 ft 533 kts 44°
2026-05-04 22:52 38.16130 -111.64895 36792 ft 532 kts 44°
2026-05-04 22:52 38.21120 -111.57894 36790 ft 532 kts 44°
2026-05-04 22:53 38.26063 -111.50943 36769 ft 531 kts 44°
2026-05-04 22:53 38.31016 -111.43965 36778 ft 528 kts 44°
2026-05-04 22:54 38.35918 -111.37043 36753 ft 527 kts 45°
2026-05-04 22:54 38.40838 -111.30079 36741 ft 526 kts 44°
2026-05-04 22:55 38.45702 -111.23179 36731 ft 525 kts 45°
2026-05-04 22:55 38.50601 -111.16216 36730 ft 526 kts 45°
2026-05-04 22:56 38.55459 -111.09293 36731 ft 524 kts 45°
2026-05-04 22:56 38.60323 -111.02349 36726 ft 521 kts 45°
2026-05-04 22:57 38.65123 -110.95480 36739 ft 519 kts 45°
2026-05-04 22:57 38.69928 -110.88589 36702 ft 518 kts 45°
2026-05-04 22:58 38.74703 -110.81728 36701 ft 517 kts 45°
2026-05-04 22:58 38.79499 -110.74821 36695 ft 516 kts 45°
2026-05-04 22:59 38.84251 -110.67962 36694 ft 515 kts 45°
2026-05-04 22:59 38.88991 -110.61104 36695 ft 515 kts 45°
2026-05-04 23:00 38.93760 -110.54191 36692 ft 514 kts 45°
2026-05-04 23:00 38.98500 -110.47306 36685 ft 516 kts 45°
2026-05-04 23:01 39.03235 -110.40409 36678 ft 517 kts 45°
2026-05-04 23:01 39.08010 -110.33442 36669 ft 517 kts 45°
2026-05-04 23:02 39.12752 -110.26508 36485 ft 525 kts 42°
2026-05-04 23:02 39.15178 -110.22961 36612 ft 529 kts 42°
2026-05-04 23:02 39.17601 -110.19411 36675 ft 534 kts 42°
2026-05-04 23:03 39.22582 -110.12099 36722 ft 547 kts 42°
2026-05-04 23:03 39.27645 -110.04651 36731 ft 562 kts 43°
2026-05-04 23:04 39.32875 -109.96926 36704 ft 576 kts 43°
2026-05-04 23:04 39.38171 -109.89081 36717 ft 586 kts 43°
2026-05-04 23:05 39.43564 -109.81073 36707 ft 586 kts 43°
2026-05-04 23:05 39.48837 -109.73208 36685 ft 577 kts 43°
2026-05-04 23:06 39.54100 -109.65362 36710 ft 579 kts 43°
2026-05-04 23:06 39.59393 -109.57459 36690 ft 580 kts 43°
2026-05-04 23:07 39.64678 -109.49540 36708 ft 581 kts 43°
2026-05-04 23:07 39.69951 -109.41612 36752 ft 581 kts 44°
2026-05-04 23:08 39.75165 -109.33744 36709 ft 569 kts 44°
2026-05-04 23:08 39.80356 -109.25906 36707 ft 571 kts 44°
2026-05-04 23:09 39.85523 -109.18094 36711 ft 573 kts 44°
2026-05-04 23:09 39.90736 -109.10184 36732 ft 575 kts 44°
2026-05-04 23:10 39.95923 -109.02288 36727 ft 575 kts 44°
2026-05-04 23:10 40.01094 -108.94392 36722 ft 564 kts 44°
2026-05-04 23:11 40.06124 -108.86686 36742 ft 557 kts 44°
2026-05-04 23:11 40.11139 -108.79007 36764 ft 560 kts 44°
2026-05-04 23:12 40.16203 -108.71231 36761 ft 561 kts 44°
2026-05-04 23:12 40.21249 -108.63455 36773 ft 562 kts 44°
2026-05-04 23:13 40.26317 -108.55623 36797 ft 561 kts 45°
2026-05-04 23:13 40.31265 -108.47945 36758 ft 546 kts 45°
2026-05-04 23:14 40.36167 -108.40333 36778 ft 546 kts 44°
2026-05-04 23:14 40.41059 -108.32730 36797 ft 548 kts 44°
2026-05-04 23:15 40.45978 -108.25060 36782 ft 550 kts 45°
2026-05-04 23:15 40.50927 -108.17317 36779 ft 551 kts 45°
2026-05-04 23:16 40.55835 -108.09617 36820 ft 550 kts 45°
2026-05-04 23:16 40.60711 -108.01944 36789 ft 545 kts 45°
2026-05-04 23:17 40.65562 -107.94295 36782 ft 541 kts 45°
2026-05-04 23:17 40.70382 -107.86681 36783 ft 539 kts 45°
2026-05-04 23:18 40.75157 -107.79122 36803 ft 539 kts 45°
2026-05-04 23:18 40.79945 -107.71522 36832 ft 540 kts 45°
2026-05-04 23:19 40.84740 -107.63889 36881 ft 541 kts 45°
2026-05-04 23:19 40.89549 -107.56214 36907 ft 541 kts 45°
2026-05-04 23:20 40.94319 -107.48579 36940 ft 541 kts 45°
2026-05-04 23:20 40.99102 -107.40908 36932 ft 540 kts 45°
2026-05-04 23:21 41.03847 -107.33276 36927 ft 540 kts 45°
2026-05-04 23:21 41.08640 -107.25553 36884 ft 540 kts 45°
2026-05-04 23:22 41.13398 -107.17865 36852 ft 541 kts 45°
2026-05-04 23:22 41.18172 -107.10131 36790 ft 541 kts 45°
2026-05-04 23:23 41.22928 -107.02405 36810 ft 541 kts 45°
2026-05-04 23:23 41.27672 -106.94682 36788 ft 542 kts 45°
2026-05-04 23:24 41.32450 -106.86880 36907 ft 542 kts 45°
2026-05-04 23:24 41.37199 -106.79106 36923 ft 542 kts 45°
2026-05-04 23:25 41.41961 -106.71292 36926 ft 542 kts 45°
2026-05-04 23:25 41.46673 -106.63539 36901 ft 540 kts 45°
2026-05-04 23:26 41.49036 -106.59642 36778 ft 540 kts 45°
2026-05-04 23:26 41.51405 -106.55735 36750 ft 539 kts 45°
2026-05-04 23:26 41.56088 -106.47989 36795 ft 538 kts 45°
2026-05-04 23:27 41.60777 -106.40216 36780 ft 539 kts 45°
2026-05-04 23:27 41.65502 -106.32364 36805 ft 540 kts 45°
2026-05-04 23:28 41.70187 -106.24555 36790 ft 540 kts 45°
2026-05-04 23:28 41.74866 -106.16735 36787 ft 539 kts 45°
2026-05-04 23:29 41.78770 -106.10195 36788 ft 539 kts 45°
2026-05-04 23:29 41.84236 -106.01103 36804 ft 536 kts 42°
2026-05-04 23:30 41.88594 -105.95252 36801 ft 528 kts 35°
2026-05-04 23:30 41.94033 -105.88664 36821 ft 527 kts 35°
2026-05-04 23:31 41.99488 -105.82035 36823 ft 526 kts 35°
2026-05-04 23:31 42.04892 -105.75376 36844 ft 525 kts 36°
2026-05-04 23:32 42.10244 -105.68729 36848 ft 525 kts 36°
2026-05-04 23:32 42.15576 -105.62086 36915 ft 525 kts 36°
2026-05-04 23:33 42.20948 -105.55382 36878 ft 523 kts 36°
2026-05-04 23:33 42.26257 -105.48742 36871 ft 521 kts 36°
2026-05-04 23:34 42.31567 -105.42087 36880 ft 520 kts 36°
2026-05-04 23:34 42.36869 -105.35427 36876 ft 519 kts 36°
2026-05-04 23:35 42.42126 -105.28809 36903 ft 519 kts 37°
2026-05-04 23:35 42.47405 -105.22144 36892 ft 519 kts 36°
2026-05-04 23:36 42.52703 -105.15439 36889 ft 519 kts 36°
2026-05-04 23:36 42.57952 -105.08781 36893 ft 519 kts 37°
2026-05-04 23:37 42.63243 -105.02053 36903 ft 519 kts 37°
2026-05-04 23:37 42.68485 -104.95371 36904 ft 519 kts 37°
2026-05-04 23:38 42.73766 -104.88622 36906 ft 519 kts 37°
2026-05-04 23:38 42.79012 -104.81901 36901 ft 518 kts 37°
2026-05-04 23:39 42.84271 -104.75147 36901 ft 518 kts 37°
2026-05-04 23:39 42.89493 -104.68426 36920 ft 518 kts 37°
2026-05-04 23:40 42.94703 -104.61703 36897 ft 517 kts 37°
2026-05-04 23:40 42.99949 -104.54916 36896 ft 517 kts 37°
2026-05-04 23:41 43.05146 -104.48176 36907 ft 516 kts 37°
2026-05-04 23:41 43.10358 -104.41402 36896 ft 517 kts 37°
2026-05-04 23:42 43.15574 -104.34605 36906 ft 516 kts 37°
2026-05-04 23:42 43.20740 -104.27853 36899 ft 515 kts 37°
2026-05-04 23:43 43.25908 -104.21083 36923 ft 514 kts 37°
2026-05-04 23:43 43.31068 -104.14312 36894 ft 514 kts 37°
2026-05-04 23:44 43.36240 -104.07505 36914 ft 514 kts 37°
2026-05-04 23:44 43.41394 -104.00704 36893 ft 514 kts 37°
2026-05-04 23:45 43.46564 -103.93865 36895 ft 514 kts 37°
2026-05-04 23:45 43.51698 -103.87057 36880 ft 514 kts 37°
2026-05-04 23:46 43.56869 -103.80185 36893 ft 515 kts 36°
2026-05-04 23:46 43.62013 -103.73330 36915 ft 516 kts 37°
2026-05-04 23:47 43.67180 -103.66426 36926 ft 515 kts 37°
2026-05-04 23:47 43.72295 -103.59573 36936 ft 514 kts 37°
2026-05-04 23:48 43.77399 -103.52718 36930 ft 514 kts 37°
2026-05-04 23:48 43.82550 -103.45786 36970 ft 514 kts 37°
2026-05-04 23:49 43.87658 -103.38894 36919 ft 515 kts 37°
2026-05-04 23:49 43.92798 -103.31938 36906 ft 515 kts 37°
2026-05-04 23:50 43.97923 -103.24987 36895 ft 515 kts 37°
2026-05-04 23:50 44.03027 -103.18046 36904 ft 515 kts 37°
2026-05-04 23:51 44.08144 -103.11072 36941 ft 517 kts 37°
2026-05-04 23:51 44.13256 -103.04082 36899 ft 517 kts 37°
2026-05-04 23:52 44.18389 -102.97046 36897 ft 516 kts 37°
2026-05-04 23:52 44.23479 -102.90053 36904 ft 516 kts 37°
2026-05-04 23:53 44.28614 -102.82981 36930 ft 517 kts 37°
2026-05-04 23:53 44.33714 -102.75940 36925 ft 518 kts 37°
2026-05-04 23:54 44.38847 -102.68832 36917 ft 518 kts 37°
2026-05-04 23:54 44.43945 -102.61753 36913 ft 518 kts 37°
2026-05-04 23:55 44.49088 -102.54595 36910 ft 519 kts 37°
2026-05-04 23:56 44.56740 -102.43911 36915 ft 520 kts 37°
2026-05-04 23:56 44.61853 -102.36745 36907 ft 520 kts 37°
2026-05-04 23:57 44.66977 -102.29546 36905 ft 520 kts 37°
2026-05-04 23:57 44.72072 -102.22369 36907 ft 520 kts 37°
2026-05-04 23:58 44.77202 -102.15125 36902 ft 521 kts 37°
2026-05-04 23:58 44.82276 -102.07940 36906 ft 519 kts 37°
2026-05-04 23:59 44.87384 -102.00687 36899 ft 519 kts 38°
2026-05-04 23:59 44.92444 -101.93482 36906 ft 518 kts 38°
2026-05-05 00:00 44.97511 -101.86250 36939 ft 519 kts 38°
2026-05-05 00:00 45.02597 -101.78970 36898 ft 519 kts 38°
2026-05-05 00:01 45.07681 -101.71675 36899 ft 519 kts 38°
2026-05-05 00:01 45.12664 -101.64260 36898 ft 521 kts 40°
2026-05-05 00:02 45.17555 -101.56729 36901 ft 522 kts 40°
2026-05-05 00:02 45.22490 -101.49114 36902 ft 523 kts 40°
2026-05-05 00:03 45.27407 -101.41550 36887 ft 523 kts 40°
2026-05-05 00:03 45.32352 -101.33947 36884 ft 522 kts 40°
2026-05-05 00:04 45.37260 -101.26383 36886 ft 522 kts 40°
2026-05-05 00:04 45.42160 -101.18808 36896 ft 522 kts 40°
2026-05-05 00:05 45.47064 -101.11203 36887 ft 522 kts 40°
2026-05-05 00:05 45.51983 -101.03552 36877 ft 521 kts 40°
2026-05-05 00:06 45.56864 -100.95940 36897 ft 520 kts 41°
2026-05-05 00:06 45.61752 -100.88296 36875 ft 520 kts 41°
2026-05-05 00:07 45.66613 -100.80673 36897 ft 520 kts 41°
2026-05-05 00:07 45.71488 -100.73009 36878 ft 520 kts 41°
2026-05-05 00:08 45.76327 -100.65377 36855 ft 519 kts 41°
2026-05-05 00:08 45.81152 -100.57748 36856 ft 518 kts 41°
2026-05-05 00:09 45.85999 -100.50062 36853 ft 518 kts 41°
2026-05-05 00:09 45.90843 -100.42360 36863 ft 518 kts 41°
2026-05-05 00:10 45.95643 -100.34705 36849 ft 518 kts 41°
2026-05-05 00:10 46.00439 -100.27036 36845 ft 517 kts 41°
2026-05-05 00:11 46.05272 -100.19285 36841 ft 517 kts 42°
2026-05-05 00:11 46.10039 -100.11620 36845 ft 516 kts 42°
2026-05-05 00:12 46.14828 -100.03899 36859 ft 516 kts 42°
2026-05-05 00:12 46.19621 -99.96148 36852 ft 517 kts 42°
2026-05-05 00:13 46.24380 -99.88431 36853 ft 517 kts 42°
2026-05-05 00:13 46.29163 -99.80651 36847 ft 517 kts 42°
2026-05-05 00:14 46.33918 -99.72896 36847 ft 517 kts 42°
2026-05-05 00:14 46.38693 -99.65085 36864 ft 517 kts 43°
2026-05-05 00:15 46.43447 -99.57287 36846 ft 518 kts 43°
2026-05-05 00:15 46.48222 -99.49433 36840 ft 518 kts 43°
2026-05-05 00:16 46.52986 -99.41571 36840 ft 518 kts 43°
2026-05-05 00:16 46.57717 -99.33743 36840 ft 518 kts 43°
2026-05-05 00:17 46.61675 -99.27179 36861 ft 517 kts 43°
2026-05-05 00:17 46.66384 -99.19342 36837 ft 514 kts 43°
2026-05-05 00:18 46.71859 -99.10207 36831 ft 512 kts 43°
2026-05-05 00:18 46.75763 -99.03676 36835 ft 513 kts 43°
2026-05-05 00:19 46.80454 -98.95809 36841 ft 514 kts 43°
2026-05-05 00:19 46.85160 -98.87893 36834 ft 516 kts 44°
2026-05-05 00:20 46.89836 -98.80001 36824 ft 516 kts 44°
2026-05-05 00:20 46.94538 -98.72040 36823 ft 515 kts 44°
2026-05-05 00:21 46.99205 -98.64116 36823 ft 515 kts 44°
2026-05-05 00:21 47.03870 -98.56176 36830 ft 515 kts 44°
2026-05-05 00:22 47.08562 -98.48167 36850 ft 515 kts 44°
2026-05-05 00:22 47.13207 -98.40213 36829 ft 515 kts 44°
2026-05-05 00:23 47.17876 -98.32192 36828 ft 514 kts 44°
2026-05-05 00:23 47.22501 -98.24225 36836 ft 513 kts 44°
2026-05-05 00:24 47.27126 -98.16235 36831 ft 513 kts 44°
2026-05-05 00:24 47.31742 -98.08238 36857 ft 513 kts 45°
2026-05-05 00:25 47.36372 -98.00193 36836 ft 513 kts 45°
2026-05-05 00:25 47.40974 -97.92168 36824 ft 513 kts 45°
2026-05-05 00:26 47.45589 -97.84100 36824 ft 512 kts 45°
2026-05-05 00:26 47.50168 -97.76072 36825 ft 512 kts 45°
2026-05-05 00:27 47.54771 -97.67977 36847 ft 512 kts 45°
2026-05-05 00:27 47.59337 -97.59924 36826 ft 512 kts 45°
2026-05-05 00:28 47.63908 -97.51837 36835 ft 511 kts 45°
2026-05-05 00:28 47.68452 -97.43772 36824 ft 511 kts 45°
2026-05-05 00:29 47.73015 -97.35651 36822 ft 510 kts 46°
2026-05-05 00:29 47.77552 -97.27552 36823 ft 510 kts 46°
2026-05-05 00:30 47.82089 -97.19429 36813 ft 510 kts 46°
2026-05-05 00:30 47.86605 -97.11320 36813 ft 510 kts 46°
2026-05-05 00:31 47.91137 -97.03156 36805 ft 510 kts 46°
2026-05-05 00:31 47.95630 -96.95038 36806 ft 510 kts 46°
2026-05-05 00:32 48.00168 -96.86814 36808 ft 510 kts 46°
2026-05-05 00:32 48.04660 -96.78648 36809 ft 511 kts 46°
2026-05-05 00:33 48.09182 -96.70404 36796 ft 512 kts 46°
2026-05-05 00:33 48.13671 -96.62193 36794 ft 512 kts 46°
2026-05-05 00:34 48.18190 -96.53902 36797 ft 512 kts 46°
2026-05-05 00:34 48.22683 -96.45635 36792 ft 512 kts 46°
2026-05-05 00:35 48.27186 -96.37323 36821 ft 512 kts 47°
2026-05-05 00:35 48.31670 -96.29020 36801 ft 512 kts 47°
2026-05-05 00:36 48.36137 -96.20724 36794 ft 512 kts 47°
2026-05-05 00:36 48.40617 -96.12376 36797 ft 511 kts 47°
2026-05-05 00:37 48.45083 -96.04030 36804 ft 511 kts 47°
2026-05-05 00:37 48.49532 -95.95691 36798 ft 511 kts 47°
2026-05-05 00:38 48.53973 -95.87339 36790 ft 511 kts 47°
2026-05-05 00:38 48.58392 -95.79002 36786 ft 510 kts 47°
2026-05-05 00:39 48.62828 -95.70608 36781 ft 510 kts 47°
2026-05-05 00:39 48.67260 -95.62195 36795 ft 510 kts 47°
2026-05-05 00:40 48.71657 -95.53822 36776 ft 511 kts 47°
2026-05-05 00:40 48.76089 -95.45358 36771 ft 511 kts 47°
2026-05-05 00:41 48.80511 -95.36884 36768 ft 512 kts 48°
2026-05-05 00:41 48.84909 -95.28430 36767 ft 512 kts 48°
2026-05-05 00:42 48.89314 -95.19934 36778 ft 512 kts 48°
2026-05-05 00:42 48.93732 -95.11386 36773 ft 513 kts 48°
2026-05-05 00:43 48.98139 -95.02834 36790 ft 512 kts 48°
2026-05-05 00:43 49.02502 -94.94339 36775 ft 512 kts 48°
2026-05-05 00:44 49.06874 -94.85800 36758 ft 511 kts 48°
2026-05-05 00:44 49.11249 -94.77226 36757 ft 511 kts 49°
2026-05-05 00:45 49.15618 -94.68637 36740 ft 511 kts 49°
2026-05-05 00:45 49.19955 -94.60085 36723 ft 511 kts 49°
2026-05-05 00:46 49.24315 -94.51459 36732 ft 511 kts 49°
2026-05-05 00:46 49.28651 -94.42851 36726 ft 511 kts 49°
2026-05-05 00:47 49.32970 -94.34250 36707 ft 511 kts 49°
2026-05-05 00:47 49.37300 -94.25598 36705 ft 510 kts 49°
2026-05-05 00:48 49.41608 -94.16962 36719 ft 510 kts 49°
2026-05-05 00:48 49.45915 -94.08304 36724 ft 510 kts 49°
2026-05-05 00:49 49.50630 -94.00186 36705 ft 505 kts 40°
2026-05-05 00:49 49.55735 -93.92820 36684 ft 505 kts 39°
2026-05-05 00:50 49.60889 -93.85412 36687 ft 506 kts 40°
2026-05-05 00:50 49.66010 -93.77951 36670 ft 506 kts 40°
2026-05-05 00:51 49.71096 -93.70468 36678 ft 506 kts 40°
2026-05-05 00:51 49.76181 -93.62953 36671 ft 506 kts 40°
2026-05-05 00:52 49.81236 -93.55461 36668 ft 506 kts 41°
2026-05-05 00:52 49.86337 -93.47884 36668 ft 506 kts 41°
2026-05-05 00:53 49.91394 -93.40348 36674 ft 506 kts 41°
2026-05-05 00:53 49.96485 -93.32741 36675 ft 506 kts 41°
2026-05-05 00:54 50.01537 -93.25166 36675 ft 506 kts 41°
2026-05-05 00:54 50.06570 -93.17598 36670 ft 505 kts 41°
2026-05-05 00:55 50.11612 -93.09992 36679 ft 505 kts 41°
2026-05-05 00:55 50.16673 -93.02334 36687 ft 505 kts 41°
2026-05-05 00:56 50.21697 -92.94707 36680 ft 505 kts 41°
2026-05-05 00:56 50.26732 -92.87040 36670 ft 504 kts 42°
2026-05-05 00:57 50.31755 -92.79370 36674 ft 503 kts 42°
2026-05-05 00:57 50.36737 -92.71736 36669 ft 503 kts 42°
2026-05-05 00:58 50.41752 -92.64029 36673 ft 504 kts 42°
2026-05-05 00:58 50.46728 -92.56358 36661 ft 503 kts 42°
2026-05-05 00:59 50.51726 -92.48628 36663 ft 503 kts 42°
2026-05-05 00:59 50.56724 -92.40874 36654 ft 503 kts 43°
2026-05-05 01:00 50.61687 -92.33151 36654 ft 503 kts 43°
2026-05-05 01:00 50.66638 -92.25422 36661 ft 503 kts 42°
2026-05-05 01:01 50.71625 -92.17612 36653 ft 504 kts 43°
2026-05-05 01:01 50.76577 -92.09831 36645 ft 505 kts 43°
2026-05-05 01:02 50.81546 -92.02000 36643 ft 504 kts 43°
2026-05-05 01:02 50.86527 -91.94127 36652 ft 504 kts 43°
2026-05-05 01:03 50.91467 -91.86291 36633 ft 503 kts 43°
2026-05-05 01:03 50.95594 -91.79726 36631 ft 504 kts 44°
2026-05-05 01:04 51.01343 -91.70549 36639 ft 504 kts 43°
2026-05-05 01:04 51.07934 -91.59988 36630 ft 504 kts 43°
2026-05-05 01:05 51.12852 -91.52080 36623 ft 505 kts 43°
2026-05-05 01:05 51.17796 -91.44097 36622 ft 505 kts 44°
2026-05-05 01:06 51.22732 -91.36109 36618 ft 505 kts 44°
2026-05-05 01:06 51.27651 -91.28125 36606 ft 506 kts 44°
2026-05-05 01:07 51.32560 -91.20130 36605 ft 506 kts 43°
2026-05-05 01:07 51.37493 -91.12063 36587 ft 505 kts 44°
2026-05-05 01:08 51.42406 -91.04001 36590 ft 504 kts 44°
2026-05-05 01:08 51.47277 -90.95991 36588 ft 503 kts 44°
2026-05-05 01:09 51.52156 -90.87937 36582 ft 503 kts 44°
2026-05-05 01:09 51.57025 -90.79875 36581 ft 504 kts 44°
2026-05-05 01:10 51.61905 -90.71766 36573 ft 504 kts 45°
2026-05-05 01:10 51.66788 -90.63623 36565 ft 504 kts 45°
2026-05-05 01:11 51.71629 -90.55524 36553 ft 503 kts 45°
2026-05-05 01:11 51.76487 -90.47371 36554 ft 501 kts 45°
2026-05-05 01:12 51.81308 -90.39260 36562 ft 502 kts 45°
2026-05-05 01:12 51.86139 -90.31098 36547 ft 502 kts 45°
2026-05-05 01:13 51.90951 -90.22940 36548 ft 503 kts 45°
2026-05-05 01:13 51.95803 -90.14692 36529 ft 502 kts 45°
2026-05-05 01:14 52.00598 -90.06510 36536 ft 502 kts 45°
2026-05-05 01:14 52.05382 -89.98321 36520 ft 500 kts 46°
2026-05-05 01:15 52.10190 -89.90061 36516 ft 501 kts 46°
2026-05-05 01:15 52.14961 -89.81840 36521 ft 501 kts 46°
2026-05-05 01:16 52.19743 -89.73571 36524 ft 503 kts 46°
2026-05-05 01:16 52.24539 -89.65251 36519 ft 502 kts 46°
2026-05-05 01:17 52.29328 -89.56915 36512 ft 501 kts 46°
2026-05-05 01:17 52.34055 -89.48655 36504 ft 499 kts 46°
2026-05-05 01:18 52.38798 -89.40342 36498 ft 498 kts 47°
2026-05-05 01:18 52.43530 -89.32020 36499 ft 498 kts 47°
2026-05-05 01:19 52.48229 -89.23730 36496 ft 499 kts 47°
2026-05-05 01:19 52.52967 -89.15342 36484 ft 499 kts 47°
2026-05-05 01:20 52.57657 -89.07011 36481 ft 498 kts 47°
2026-05-05 01:20 52.62362 -88.98623 36463 ft 497 kts 47°
2026-05-05 01:21 52.67059 -88.90222 36466 ft 497 kts 47°
2026-05-05 01:21 52.71729 -88.81841 36470 ft 498 kts 47°
2026-05-05 01:22 52.76391 -88.73445 36457 ft 499 kts 47°
2026-05-05 01:22 52.81089 -88.64956 36454 ft 499 kts 47°
2026-05-05 01:23 52.85747 -88.56509 36440 ft 497 kts 47°
2026-05-05 01:23 52.90391 -88.48059 36434 ft 496 kts 48°
2026-05-05 01:24 52.95022 -88.39604 36453 ft 497 kts 48°
2026-05-05 01:24 52.99669 -88.31091 36442 ft 498 kts 48°
2026-05-05 01:25 53.04323 -88.22534 36444 ft 499 kts 48°
2026-05-05 01:25 53.08947 -88.14002 36430 ft 498 kts 48°
2026-05-05 01:26 53.13585 -88.05417 36430 ft 497 kts 49°
2026-05-05 01:26 53.18188 -87.96864 36437 ft 497 kts 48°
2026-05-05 01:27 53.22816 -87.88236 36418 ft 498 kts 49°
2026-05-05 01:27 53.27424 -87.79619 36423 ft 500 kts 49°
2026-05-05 01:28 53.32056 -87.70922 36419 ft 499 kts 49°
2026-05-05 01:28 53.36640 -87.62284 36421 ft 498 kts 49°
2026-05-05 01:29 53.41233 -87.53600 36421 ft 497 kts 49°
2026-05-05 01:29 53.45818 -87.44903 36410 ft 497 kts 49°
2026-05-05 01:30 53.50386 -87.36206 36418 ft 498 kts 49°
2026-05-05 01:30 53.54967 -87.27452 36406 ft 500 kts 49°
2026-05-05 01:31 53.59573 -87.18620 36396 ft 501 kts 49°
2026-05-05 01:31 53.64168 -87.09777 36402 ft 500 kts 50°
2026-05-05 01:32 53.68731 -87.00964 36388 ft 500 kts 49°
2026-05-05 01:32 53.73285 -86.92136 36392 ft 499 kts 49°
2026-05-05 01:33 53.77844 -86.83271 36367 ft 498 kts 50°
2026-05-05 01:33 53.82358 -86.74451 36386 ft 499 kts 50°
2026-05-05 01:34 53.86913 -86.65520 36385 ft 500 kts 50°
2026-05-05 01:34 53.91452 -86.56602 36368 ft 501 kts 50°
2026-05-05 01:35 53.95987 -86.47653 36372 ft 501 kts 50°
2026-05-05 01:35 54.00549 -86.38621 36357 ft 500 kts 51°
2026-05-05 01:36 54.05038 -86.29693 36351 ft 498 kts 51°
2026-05-05 01:36 54.09531 -86.20720 36363 ft 497 kts 51°
2026-05-05 01:37 54.13992 -86.11781 36355 ft 497 kts 51°
2026-05-05 01:37 54.18493 -86.02737 36356 ft 499 kts 51°
2026-05-05 01:38 54.22963 -85.93723 36342 ft 500 kts 51°
2026-05-05 01:38 54.27455 -85.84629 36340 ft 500 kts 51°
2026-05-05 01:39 54.31919 -85.75554 36349 ft 499 kts 52°
2026-05-05 01:39 54.36398 -85.66415 36328 ft 500 kts 52°
2026-05-05 01:40 54.40850 -85.57298 36336 ft 501 kts 52°
2026-05-05 01:40 54.45341 -85.48069 36329 ft 501 kts 51°
2026-05-05 01:41 54.49790 -85.38889 36332 ft 501 kts 52°
2026-05-05 01:41 54.54223 -85.29711 36330 ft 500 kts 52°
2026-05-05 01:42 54.58649 -85.20514 36331 ft 499 kts 52°
2026-05-05 01:42 54.63081 -85.11268 36321 ft 499 kts 52°
2026-05-05 01:43 54.67503 -85.02006 36323 ft 498 kts 52°
2026-05-05 01:43 54.71882 -84.92799 36326 ft 497 kts 52°
2026-05-05 01:44 54.76253 -84.83576 36335 ft 496 kts 52°
2026-05-05 01:44 54.80646 -84.74274 36329 ft 497 kts 52°
2026-05-05 01:45 54.84985 -84.65048 36333 ft 497 kts 53°
2026-05-05 01:45 54.89349 -84.55731 36329 ft 497 kts 52°
2026-05-05 01:46 54.93721 -84.46368 36331 ft 497 kts 52°
2026-05-05 01:46 54.98085 -84.36987 36330 ft 497 kts 53°
2026-05-05 01:47 55.02408 -84.27654 36332 ft 497 kts 53°
2026-05-05 01:47 55.06748 -84.18251 36345 ft 497 kts 53°
2026-05-05 01:48 55.11064 -84.08861 36342 ft 497 kts 53°
2026-05-05 01:48 55.15388 -83.99420 36354 ft 496 kts 53°
2026-05-05 01:49 55.19672 -83.90033 36351 ft 496 kts 53°
2026-05-05 01:49 55.23983 -83.80544 36362 ft 495 kts 53°
2026-05-05 01:50 55.28249 -83.71114 36360 ft 494 kts 53°
2026-05-05 01:50 55.32509 -83.61671 36372 ft 494 kts 53°
2026-05-05 01:51 55.36782 -83.52159 36366 ft 494 kts 53°
2026-05-05 01:51 55.41026 -83.42673 36380 ft 494 kts 54°
2026-05-05 01:52 55.45245 -83.33206 36379 ft 494 kts 54°
2026-05-05 01:52 55.49502 -83.23620 36386 ft 495 kts 53°
2026-05-05 01:53 55.53030 -83.15650 36390 ft 495 kts 54°
2026-05-05 01:53 55.57272 -83.06028 36388 ft 495 kts 54°
2026-05-05 01:54 55.61495 -82.96408 36394 ft 495 kts 54°
2026-05-05 01:54 55.65700 -82.86798 36397 ft 495 kts 54°
2026-05-05 01:55 55.69903 -82.77148 36406 ft 495 kts 54°
2026-05-05 01:55 55.74089 -82.67498 36393 ft 495 kts 54°
2026-05-05 01:56 55.78297 -82.57763 36420 ft 495 kts 54°
2026-05-05 01:56 55.82469 -82.48074 36415 ft 495 kts 55°
2026-05-05 01:57 55.86664 -82.38291 36422 ft 495 kts 54°
2026-05-05 01:57 55.90830 -82.28537 36436 ft 496 kts 55°
2026-05-05 01:58 55.94971 -82.18802 36427 ft 496 kts 55°
2026-05-05 01:58 55.99163 -82.08906 36426 ft 496 kts 55°
2026-05-05 01:59 56.03301 -81.99100 36432 ft 496 kts 55°
2026-05-05 01:59 56.07463 -81.89194 36438 ft 496 kts 55°
2026-05-05 02:00 56.11594 -81.79325 36442 ft 496 kts 55°
2026-05-05 02:00 56.15730 -81.69404 36454 ft 496 kts 55°
2026-05-05 02:01 56.19838 -81.59510 36446 ft 495 kts 55°
2026-05-05 02:01 56.23966 -81.49525 36454 ft 495 kts 55°
2026-05-05 02:02 56.28052 -81.39604 36446 ft 495 kts 56°
2026-05-05 02:02 56.32135 -81.29647 36441 ft 495 kts 56°
2026-05-05 02:03 56.36233 -81.19616 36466 ft 496 kts 56°
2026-05-05 02:03 56.40300 -81.09613 36465 ft 496 kts 56°
2026-05-05 02:04 56.44382 -80.99533 36478 ft 496 kts 56°
2026-05-05 02:04 56.48441 -80.89472 36471 ft 497 kts 56°
2026-05-05 02:05 56.52520 -80.79319 36485 ft 497 kts 57°
2026-05-05 02:05 56.56557 -80.69232 36466 ft 496 kts 56°
2026-05-05 02:06 56.60614 -80.59050 36490 ft 496 kts 57°
2026-05-05 02:06 56.64636 -80.48906 36499 ft 496 kts 57°
2026-05-05 02:07 56.68645 -80.38754 36514 ft 496 kts 56°
2026-05-05 02:07 56.72680 -80.28496 36516 ft 496 kts 57°
2026-05-05 02:08 56.76663 -80.18332 36515 ft 496 kts 57°
2026-05-05 02:08 56.80660 -80.08087 36530 ft 496 kts 57°
2026-05-05 02:09 56.84673 -79.97758 36518 ft 497 kts 57°
2026-05-05 02:09 56.88645 -79.87463 36538 ft 497 kts 57°
2026-05-05 02:10 56.92627 -79.77090 36543 ft 497 kts 57°
2026-05-05 02:10 56.96578 -79.66752 36553 ft 498 kts 57°
2026-05-05 02:11 57.00563 -79.56285 36558 ft 499 kts 57°
2026-05-05 02:11 57.04506 -79.45884 36562 ft 500 kts 57°
2026-05-05 02:12 57.10455 -79.30105 36557 ft 500 kts 57°
2026-05-05 02:13 57.14413 -79.19550 36577 ft 499 kts 58°
2026-05-05 02:13 57.18344 -79.09019 36578 ft 500 kts 58°
2026-05-05 02:14 57.22266 -78.98470 36598 ft 500 kts 58°
2026-05-05 02:14 57.26203 -78.87833 36615 ft 500 kts 58°
2026-05-05 02:15 57.30106 -78.77242 36610 ft 500 kts 58°
2026-05-05 02:15 57.33993 -78.66646 36623 ft 500 kts 58°
2026-05-05 02:16 57.37897 -78.55956 36607 ft 499 kts 58°
2026-05-05 02:16 57.41757 -78.45341 36625 ft 498 kts 58°
2026-05-05 02:17 57.45634 -78.34631 36631 ft 497 kts 58°
2026-05-05 02:17 57.49468 -78.23992 36641 ft 497 kts 58°
2026-05-05 02:18 57.53292 -78.13334 36646 ft 497 kts 58°
2026-05-05 02:18 57.57126 -78.02600 36644 ft 497 kts 59°
2026-05-05 02:19 57.60929 -77.91906 36650 ft 497 kts 59°
2026-05-05 02:19 57.64756 -77.81097 36631 ft 497 kts 59°
2026-05-05 02:20 57.68550 -77.70331 36661 ft 497 kts 59°
2026-05-05 02:20 57.72332 -77.59550 36672 ft 497 kts 59°
2026-05-05 02:21 57.76105 -77.48746 36680 ft 497 kts 59°
2026-05-05 02:21 57.79889 -77.37861 36679 ft 497 kts 59°
2026-05-05 02:22 57.83669 -77.26940 36680 ft 497 kts 59°
2026-05-05 02:22 57.87417 -77.16059 36688 ft 497 kts 60°
2026-05-05 02:23 57.91154 -77.05163 36687 ft 498 kts 60°
2026-05-05 02:23 57.94889 -76.94224 36697 ft 498 kts 60°
2026-05-05 02:24 57.98631 -76.83210 36698 ft 498 kts 60°
2026-05-05 02:24 58.02358 -76.72190 36699 ft 498 kts 60°
2026-05-05 02:25 58.06061 -76.61191 36706 ft 498 kts 60°
2026-05-05 02:25 58.09771 -76.50120 36705 ft 497 kts 60°
2026-05-05 02:26 58.13461 -76.39057 36712 ft 497 kts 60°
2026-05-05 02:26 58.17128 -76.28011 36704 ft 497 kts 60°
2026-05-05 02:27 58.20776 -76.16971 36707 ft 496 kts 60°
2026-05-05 02:27 58.24446 -76.05813 36707 ft 496 kts 61°
2026-05-05 02:28 58.28078 -75.94718 36711 ft 496 kts 61°
2026-05-05 02:28 58.31725 -75.83521 36715 ft 496 kts 61°
2026-05-05 02:29 58.35330 -75.72405 36722 ft 496 kts 61°
2026-05-05 02:29 58.38951 -75.61184 36723 ft 496 kts 61°
2026-05-05 02:30 58.42559 -75.49954 36718 ft 495 kts 62°
2026-05-05 02:30 58.46136 -75.38766 36731 ft 494 kts 62°
2026-05-05 02:31 58.49700 -75.27563 36729 ft 493 kts 62°
2026-05-05 02:31 58.53259 -75.16321 36740 ft 493 kts 62°
2026-05-05 02:32 58.56793 -75.05108 36746 ft 493 kts 62°
2026-05-05 02:32 58.60333 -74.93819 36746 ft 493 kts 62°
2026-05-05 02:33 58.63868 -74.82493 36753 ft 493 kts 62°
2026-05-05 02:33 58.67369 -74.71219 36747 ft 493 kts 62°
2026-05-05 02:34 58.70870 -74.59897 36756 ft 492 kts 63°
2026-05-05 02:34 58.74341 -74.48614 36774 ft 492 kts 63°
2026-05-05 02:35 58.77837 -74.37192 36793 ft 492 kts 63°
2026-05-05 02:35 58.81294 -74.25843 36772 ft 492 kts 63°
2026-05-05 02:36 58.84762 -74.14402 36795 ft 492 kts 63°
2026-05-05 02:36 58.88197 -74.03013 36809 ft 492 kts 63°
2026-05-05 02:37 58.91645 -73.91531 36793 ft 492 kts 63°
2026-05-05 02:37 58.95052 -73.80123 36808 ft 491 kts 64°
2026-05-05 02:38 58.98472 -73.68616 36817 ft 491 kts 64°
2026-05-05 02:38 59.01851 -73.57190 36824 ft 491 kts 64°
2026-05-05 02:39 59.05244 -73.45662 36833 ft 491 kts 64°
2026-05-05 02:39 59.08062 -73.36040 36831 ft 491 kts 64°
2026-05-05 02:40 59.11983 -73.22589 36835 ft 491 kts 64°
2026-05-05 02:40 59.14782 -73.12936 36814 ft 491 kts 64°
2026-05-05 02:41 59.18117 -73.01389 36838 ft 490 kts 65°
2026-05-05 02:41 59.21457 -72.89763 36851 ft 489 kts 65°
2026-05-05 02:42 59.24761 -72.78199 36852 ft 489 kts 65°
2026-05-05 02:42 59.28060 -72.66596 36862 ft 489 kts 65°
2026-05-05 02:43 59.31359 -72.54937 36857 ft 489 kts 65°
2026-05-05 02:43 59.34633 -72.43304 36872 ft 489 kts 65°
2026-05-05 02:44 59.37907 -72.31611 36871 ft 489 kts 65°
2026-05-05 02:44 59.41149 -72.19977 36873 ft 487 kts 66°
2026-05-05 02:45 59.44387 -72.08300 36890 ft 486 kts 66°
2026-05-05 02:45 59.47619 -71.96578 36884 ft 486 kts 66°
2026-05-05 02:46 59.50816 -71.84923 36878 ft 485 kts 66°
2026-05-05 02:46 59.54005 -71.73236 36889 ft 485 kts 66°
2026-05-05 02:47 59.57202 -71.61462 36886 ft 486 kts 66°
2026-05-05 02:47 59.60379 -71.49699 36889 ft 486 kts 67°
2026-05-05 02:48 59.63539 -71.37943 36876 ft 486 kts 67°
2026-05-05 02:48 59.66707 -71.26094 36894 ft 485 kts 67°
2026-05-05 02:49 59.69847 -71.14284 36881 ft 485 kts 67°
2026-05-05 02:49 59.72976 -71.02456 36901 ft 486 kts 68°
2026-05-05 02:50 59.76094 -70.90603 36907 ft 487 kts 68°
2026-05-05 02:50 59.79219 -70.78660 36902 ft 487 kts 68°
2026-05-05 02:51 59.82323 -70.66739 36902 ft 487 kts 68°
2026-05-05 02:51 59.85430 -70.54741 36871 ft 487 kts 68°
2026-05-05 02:52 59.88528 -70.42714 36884 ft 487 kts 68°
2026-05-05 02:52 59.91609 -70.30689 36892 ft 487 kts 68°
2026-05-05 02:53 59.94669 -70.18674 36905 ft 488 kts 68°
2026-05-05 02:53 59.97745 -70.06534 36906 ft 489 kts 69°
2026-05-05 02:54 60.00786 -69.94466 36896 ft 489 kts 69°
2026-05-05 02:54 60.03834 -69.82306 36905 ft 489 kts 69°
2026-05-05 02:55 60.06880 -69.70088 36900 ft 489 kts 69°
2026-05-05 02:55 60.09902 -69.57903 36876 ft 487 kts 69°
2026-05-05 02:56 60.12882 -69.45816 36894 ft 485 kts 69°
2026-05-05 02:56 60.15861 -69.33663 36897 ft 484 kts 70°
2026-05-05 02:57 60.18810 -69.21563 36902 ft 483 kts 70°
2026-05-05 02:57 60.21763 -69.09380 36899 ft 483 kts 70°
2026-05-05 02:58 60.24690 -68.97238 36899 ft 484 kts 70°
2026-05-05 02:58 60.27604 -68.85087 36894 ft 484 kts 70°
2026-05-05 02:59 60.30527 -68.72826 36890 ft 484 kts 70°
2026-05-05 02:59 60.33444 -68.60518 36892 ft 484 kts 70°
2026-05-05 03:00 60.36330 -68.48277 36885 ft 484 kts 71°
2026-05-05 03:00 60.39208 -68.36000 36881 ft 484 kts 71°
2026-05-05 03:01 60.42073 -68.23705 36891 ft 484 kts 71°
2026-05-05 03:01 60.44939 -68.11338 36861 ft 484 kts 71°
2026-05-05 03:02 60.47779 -67.99010 36877 ft 484 kts 71°
2026-05-05 03:02 60.50631 -67.86557 36879 ft 485 kts 71°
2026-05-05 03:03 60.53445 -67.74203 36868 ft 484 kts 72°
2026-05-05 03:03 60.56266 -67.61747 36876 ft 482 kts 72°
2026-05-05 03:04 60.59054 -67.49359 36881 ft 482 kts 72°
2026-05-05 03:04 60.61821 -67.36990 36853 ft 481 kts 72°
2026-05-05 03:05 60.64576 -67.24601 36871 ft 482 kts 72°
2026-05-05 03:05 60.67352 -67.12053 36872 ft 484 kts 72°
2026-05-05 03:06 60.70088 -66.99546 36861 ft 483 kts 74°
2026-05-05 03:06 60.72474 -66.86708 36846 ft 480 kts 76°
2026-05-05 03:07 60.74726 -66.73900 36860 ft 478 kts 77°
2026-05-05 03:07 60.76956 -66.61180 36843 ft 477 kts 77°
2026-05-05 03:08 60.79191 -66.48461 36855 ft 477 kts 77°
2026-05-05 03:08 60.81445 -66.35592 36848 ft 478 kts 77°
2026-05-05 03:09 60.83675 -66.22789 36845 ft 479 kts 77°
2026-05-05 03:09 60.85899 -66.09933 36845 ft 480 kts 77°
2026-05-05 03:10 60.88119 -65.97010 36820 ft 480 kts 77°
2026-05-05 03:10 60.90320 -65.84114 36831 ft 478 kts 77°
2026-05-05 03:11 60.92508 -65.71195 36834 ft 476 kts 77°
2026-05-05 03:11 60.94659 -65.58395 36821 ft 476 kts 77°
2026-05-05 03:12 60.96820 -65.45450 36824 ft 477 kts 77°
2026-05-05 03:12 60.98954 -65.32575 36826 ft 478 kts 77°
2026-05-05 03:13 61.01101 -65.19530 36814 ft 478 kts 77°
2026-05-05 03:13 61.03216 -65.06594 36787 ft 478 kts 77°
2026-05-05 03:14 61.05330 -64.93578 36812 ft 475 kts 78°
2026-05-05 03:14 61.07399 -64.80734 36807 ft 473 kts 78°
2026-05-05 03:15 61.09459 -64.67848 36805 ft 473 kts 78°
2026-05-05 03:15 61.11518 -64.54867 36819 ft 475 kts 78°
2026-05-05 03:16 61.13562 -64.41891 36809 ft 476 kts 78°
2026-05-05 03:16 61.15610 -64.28800 36805 ft 477 kts 78°
2026-05-05 03:17 61.17634 -64.15772 36812 ft 477 kts 78°
2026-05-05 03:17 61.19656 -64.02654 36790 ft 475 kts 78°
2026-05-05 03:18 61.21643 -63.89668 36792 ft 473 kts 78°
2026-05-05 03:18 61.23616 -63.76670 36793 ft 473 kts 78°
2026-05-05 03:19 61.26555 -63.57117 36785 ft 473 kts 78°
2026-05-05 03:19 61.28497 -63.44075 36792 ft 474 kts 78°
2026-05-05 03:20 61.30442 -63.30913 36776 ft 475 kts 78°
2026-05-05 03:20 61.32362 -63.17824 36747 ft 474 kts 78°
2026-05-05 03:21 61.34279 -63.04649 36781 ft 474 kts 79°
2026-05-05 03:21 61.36167 -62.91569 36759 ft 473 kts 79°
2026-05-05 03:22 61.38053 -62.78399 36780 ft 474 kts 79°
2026-05-05 03:22 61.39922 -62.65244 36784 ft 474 kts 79°
2026-05-05 03:23 61.41791 -62.51981 36764 ft 475 kts 79°
2026-05-05 03:23 61.43638 -62.38770 36774 ft 475 kts 79°
2026-05-05 03:24 61.45471 -62.25551 36768 ft 475 kts 79°
2026-05-05 03:24 61.47299 -62.12262 36748 ft 473 kts 79°
2026-05-05 03:25 61.49100 -61.99063 36753 ft 473 kts 79°
2026-05-05 03:25 61.50890 -61.85824 36765 ft 474 kts 79°
2026-05-05 03:26 61.52681 -61.72467 36760 ft 475 kts 79°
2026-05-05 03:26 61.54454 -61.59142 36770 ft 476 kts 80°
2026-05-05 03:27 61.56221 -61.45751 36758 ft 476 kts 80°
2026-05-05 03:27 61.57967 -61.32400 36757 ft 476 kts 80°
2026-05-05 03:28 61.59418 -61.21219 36755 ft 475 kts 80°
2026-05-05 03:28 61.61132 -61.07909 36756 ft 473 kts 80°
2026-05-05 03:29 61.62839 -60.94526 36756 ft 472 kts 80°
2026-05-05 03:29 61.64531 -60.81152 36774 ft 472 kts 80°
2026-05-05 03:30 61.66198 -60.67850 36765 ft 472 kts 81°
2026-05-05 03:30 61.67861 -60.54465 36764 ft 472 kts 81°
2026-05-05 03:31 61.69508 -60.41091 36764 ft 472 kts 81°
2026-05-05 03:31 61.71148 -60.27656 36745 ft 472 kts 81°
2026-05-05 03:32 61.72760 -60.14326 36749 ft 471 kts 81°
2026-05-05 03:32 61.74374 -60.00859 36767 ft 472 kts 81°
2026-05-05 03:33 61.75964 -59.87469 36772 ft 473 kts 81°
2026-05-05 03:33 61.77558 -59.73917 36781 ft 474 kts 81°
2026-05-05 03:34 61.79129 -59.60440 36780 ft 474 kts 81°
2026-05-05 03:34 61.80684 -59.46970 36777 ft 474 kts 81°
2026-05-05 03:35 61.82236 -59.33399 36791 ft 473 kts 81°
2026-05-05 03:35 61.83772 -59.19840 36766 ft 473 kts 81°
2026-05-05 03:36 61.85287 -59.06323 36784 ft 475 kts 81°
2026-05-05 03:36 61.86804 -58.92661 36806 ft 477 kts 81°
2026-05-05 03:37 61.88308 -58.78982 36799 ft 478 kts 81°
2026-05-05 03:37 61.89810 -58.65186 36799 ft 478 kts 82°
2026-05-05 03:38 61.91283 -58.51524 36817 ft 477 kts 82°
2026-05-05 03:38 61.92754 -58.37733 36812 ft 477 kts 82°
2026-05-05 03:39 61.94198 -58.24044 36798 ft 476 kts 81°
2026-05-05 03:39 61.95635 -58.10313 36820 ft 476 kts 82°
2026-05-05 03:40 61.97170 -57.96688 36821 ft 479 kts 76°
2026-05-05 03:40 61.99337 -57.83239 36838 ft 480 kts 75°
2026-05-05 03:41 62.01546 -57.69847 36830 ft 481 kts 75°
2026-05-05 03:41 62.03736 -57.56321 36831 ft 481 kts 75°
2026-05-05 03:42 62.05876 -57.42866 36847 ft 481 kts 75°
2026-05-05 03:42 62.08005 -57.29329 36839 ft 481 kts 75°
2026-05-05 03:43 62.10116 -57.15802 36854 ft 482 kts 75°
2026-05-05 03:43 62.12231 -57.02155 36863 ft 483 kts 75°
2026-05-05 03:44 62.14321 -56.88563 36861 ft 483 kts 75°
2026-05-05 03:44 62.16417 -56.74831 36874 ft 483 kts 76°
2026-05-05 03:45 62.18477 -56.61232 36874 ft 483 kts 76°
2026-05-05 03:45 62.20546 -56.47461 36873 ft 484 kts 76°
2026-05-05 03:46 62.22587 -56.33762 36889 ft 485 kts 76°
2026-05-05 03:46 62.24622 -56.19994 36902 ft 486 kts 76°
2026-05-05 03:47 62.26651 -56.06167 36884 ft 486 kts 76°
2026-05-05 03:47 62.28674 -55.92262 36900 ft 485 kts 76°
2026-05-05 03:48 62.30674 -55.78402 36915 ft 485 kts 76°
2026-05-05 03:48 62.32651 -55.64585 36904 ft 485 kts 76°
2026-05-05 03:49 62.34620 -55.50710 36931 ft 487 kts 76°
2026-05-05 03:49 62.36595 -55.36671 36933 ft 488 kts 76°
2026-05-05 03:50 62.38547 -55.22687 36930 ft 489 kts 76°
2026-05-05 03:50 62.40491 -55.08638 36943 ft 488 kts 77°
2026-05-05 03:51 62.42413 -54.94634 36946 ft 487 kts 77°
2026-05-05 03:51 62.44319 -54.80619 36953 ft 487 kts 76°
2026-05-05 03:52 62.46221 -54.66493 36962 ft 490 kts 76°
2026-05-05 03:52 62.48111 -54.52345 36963 ft 493 kts 76°
2026-05-05 03:53 62.49998 -54.38105 36975 ft 494 kts 77°
2026-05-05 03:53 62.51878 -54.23787 36967 ft 493 kts 77°
2026-05-05 03:54 62.53730 -54.09558 36988 ft 492 kts 77°
2026-05-05 03:54 62.55578 -53.95218 36980 ft 491 kts 76°
2026-05-05 03:55 62.57396 -53.80969 36980 ft 493 kts 76°
2026-05-05 03:55 62.59222 -53.66550 36984 ft 494 kts 76°
2026-05-05 03:56 62.61023 -53.52182 37001 ft 494 kts 76°
2026-05-05 03:56 62.62816 -53.37749 37011 ft 494 kts 76°
2026-05-05 03:57 62.64588 -53.23344 37015 ft 494 kts 76°
2026-05-05 03:57 62.66343 -53.08934 37010 ft 493 kts 76°
2026-05-05 03:58 62.68090 -52.94449 37010 ft 496 kts 76°
2026-05-05 03:58 62.69826 -52.79928 37026 ft 497 kts 76°
2026-05-05 03:59 62.71564 -52.65239 37027 ft 499 kts 76°
2026-05-05 03:59 62.73271 -52.50660 37011 ft 498 kts 76°
2026-05-05 04:00 62.74965 -52.36053 37023 ft 497 kts 76°
2026-05-05 04:00 62.76647 -52.21403 37025 ft 495 kts 77°
2026-05-05 04:01 62.78300 -52.06855 37025 ft 495 kts 77°
2026-05-05 04:01 62.79947 -51.92214 37027 ft 494 kts 77°
2026-05-05 04:02 62.81571 -51.77616 37029 ft 494 kts 77°
2026-05-05 04:02 62.83176 -51.63044 37027 ft 494 kts 77°
2026-05-05 04:03 62.84769 -51.48429 37028 ft 495 kts 77°
2026-05-05 04:03 62.86357 -51.33702 37016 ft 495 kts 77°
2026-05-05 04:04 62.87917 -51.19080 37022 ft 497 kts 77°
2026-05-05 04:04 62.89478 -51.04290 37029 ft 499 kts 77°
2026-05-05 04:05 62.91034 -50.89382 37029 ft 500 kts 77°
2026-05-05 04:05 62.92563 -50.74564 37023 ft 500 kts 77°
2026-05-05 04:06 62.94086 -50.59640 37022 ft 500 kts 77°
2026-05-05 04:06 62.95593 -50.44704 37030 ft 499 kts 78°
2026-05-05 04:07 62.97071 -50.29872 37032 ft 501 kts 77°
2026-05-05 04:07 62.98560 -50.14797 37034 ft 503 kts 77°
2026-05-05 04:08 62.99980 -49.99763 37056 ft 504 kts 81°
2026-05-05 04:08 63.00644 -49.84440 37075 ft 504 kts 86°
2026-05-05 04:09 63.01101 -49.69012 37065 ft 504 kts 86°
2026-05-05 04:09 63.01562 -49.53627 37068 ft 503 kts 86°
2026-05-05 04:10 63.02036 -49.38301 37098 ft 503 kts 85°
2026-05-05 04:10 63.02509 -49.22813 37091 ft 507 kts 86°
2026-05-05 04:11 63.02968 -49.07253 37087 ft 509 kts 86°
2026-05-05 04:11 63.03407 -48.91749 37082 ft 509 kts 86°
2026-05-05 04:12 63.03827 -48.76255 37084 ft 508 kts 86°
2026-05-05 04:12 63.04232 -48.60698 37083 ft 507 kts 86°
2026-05-05 04:13 63.04617 -48.45234 37088 ft 506 kts 86°
2026-05-05 04:13 63.04926 -48.32318 37098 ft 507 kts 86°
2026-05-05 04:14 63.05282 -48.16762 37092 ft 508 kts 86°
2026-05-05 04:14 63.05677 -47.98628 37098 ft 510 kts 86°
2026-05-05 04:15 63.05946 -47.85572 37101 ft 511 kts 86°
2026-05-05 04:15 63.06254 -47.69852 37111 ft 511 kts 86°
2026-05-05 04:16 63.06542 -47.54244 37107 ft 511 kts 86°
2026-05-05 04:16 63.06814 -47.38597 37110 ft 510 kts 86°
2026-05-05 04:17 63.07067 -47.23024 37146 ft 511 kts 86°
2026-05-05 04:17 63.07306 -47.07265 37132 ft 512 kts 86°
2026-05-05 04:18 63.07527 -46.91597 37127 ft 512 kts 86°
2026-05-05 04:18 63.07729 -46.75971 37143 ft 512 kts 87°
2026-05-05 04:19 63.07916 -46.60267 37142 ft 511 kts 87°
2026-05-05 04:19 63.08084 -46.44546 37145 ft 511 kts 87°
2026-05-05 04:20 63.08235 -46.28916 37144 ft 511 kts 87°
2026-05-05 04:20 63.08369 -46.13153 37156 ft 513 kts 87°
2026-05-05 04:21 63.08486 -45.97465 37144 ft 515 kts 87°
2026-05-05 04:21 63.08586 -45.81584 37138 ft 515 kts 87°
2026-05-05 04:22 63.08668 -45.65829 37160 ft 515 kts 87°
2026-05-05 04:22 63.08732 -45.50017 37144 ft 514 kts 88°
2026-05-05 04:23 63.08779 -45.34317 37146 ft 513 kts 88°
2026-05-05 04:23 63.08809 -45.18524 37155 ft 513 kts 88°
2026-05-05 04:24 63.08820 -45.02768 37155 ft 516 kts 88°
2026-05-05 04:25 63.08806 -44.78960 37151 ft 518 kts 88°
2026-05-05 04:25 63.08773 -44.63009 37127 ft 519 kts 88°
2026-05-05 04:26 63.08723 -44.47121 37118 ft 519 kts 88°
2026-05-05 04:26 63.08654 -44.31187 37123 ft 518 kts 88°
2026-05-05 04:27 63.08568 -44.15276 37119 ft 518 kts 88°
2026-05-05 04:27 63.08463 -43.99418 37117 ft 518 kts 88°
2026-05-05 04:28 63.08343 -43.83466 37151 ft 519 kts 88°
2026-05-05 04:28 63.08205 -43.67578 37155 ft 519 kts 88°
2026-05-05 04:29 63.08048 -43.51733 37207 ft 518 kts 89°
2026-05-05 04:29 63.07871 -43.35800 37241 ft 518 kts 89°
2026-05-05 04:30 63.07679 -43.19929 37228 ft 518 kts 89°
2026-05-05 04:30 63.07469 -43.04109 37339 ft 518 kts 89°
2026-05-05 04:31 63.07240 -42.88175 37315 ft 518 kts 89°
2026-05-05 04:31 63.06995 -42.72345 37315 ft 519 kts 89°
2026-05-05 04:32 63.06732 -42.56467 37352 ft 517 kts 89°
2026-05-05 04:32 63.06452 -42.40682 37356 ft 516 kts 89°
2026-05-05 04:33 63.06153 -42.24835 37367 ft 516 kts 90°
2026-05-05 04:33 63.05836 -42.09064 37360 ft 516 kts 90°
2026-05-05 04:34 63.05505 -41.93241 37366 ft 516 kts 90°
2026-05-05 04:34 63.05157 -41.77510 37371 ft 516 kts 90°
2026-05-05 04:35 63.04786 -41.61655 37360 ft 517 kts 90°
2026-05-05 04:35 63.04400 -41.45921 37388 ft 515 kts 90°
2026-05-05 04:36 63.03997 -41.30130 37374 ft 515 kts 90°
2026-05-05 04:36 63.03580 -41.14452 37369 ft 514 kts 91°
2026-05-05 04:37 63.03142 -40.98686 37359 ft 514 kts 91°
2026-05-05 04:37 63.02685 -40.82885 37374 ft 516 kts 91°
2026-05-05 04:38 63.02213 -40.67155 37375 ft 518 kts 91°
2026-05-05 04:38 63.01716 -40.51217 37348 ft 519 kts 91°
2026-05-05 04:39 63.01206 -40.35434 37366 ft 518 kts 91°
2026-05-05 04:39 63.00680 -40.19664 37363 ft 518 kts 91°
2026-05-05 04:40 63.00136 -40.03823 37353 ft 518 kts 91°
2026-05-05 04:40 62.99329 -39.88052 37357 ft 518 kts 95°
2026-05-05 04:41 62.98306 -39.72392 37342 ft 520 kts 95°
2026-05-05 04:41 62.97254 -39.56639 37336 ft 520 kts 95°
2026-05-05 04:42 62.96214 -39.40980 37335 ft 519 kts 95°
2026-05-05 04:42 62.95164 -39.25228 37318 ft 518 kts 95°
2026-05-05 04:43 62.94108 -39.09629 37320 ft 518 kts 95°
2026-05-05 04:43 62.93034 -38.94048 37307 ft 518 kts 96°
2026-05-05 04:44 62.91930 -38.78319 37307 ft 518 kts 96°
2026-05-05 04:44 62.90819 -38.62751 37308 ft 520 kts 96°
2026-05-05 04:45 62.89678 -38.47013 37298 ft 520 kts 96°
2026-05-05 04:45 62.88528 -38.31414 37292 ft 519 kts 96°
2026-05-05 04:46 62.87362 -38.15840 37296 ft 519 kts 96°
2026-05-05 04:46 62.86174 -38.00207 37295 ft 518 kts 96°
2026-05-05 04:47 62.84980 -37.84731 37294 ft 518 kts 96°
2026-05-05 04:47 62.83761 -37.69164 37288 ft 518 kts 97°
2026-05-05 04:48 62.82520 -37.53555 37292 ft 520 kts 96°
2026-05-05 04:48 62.81265 -37.37984 37281 ft 522 kts 97°
2026-05-05 04:49 62.79990 -37.22410 37278 ft 523 kts 97°
2026-05-05 04:49 62.78687 -37.06726 37277 ft 523 kts 97°
2026-05-05 04:50 62.77376 -36.91157 37265 ft 523 kts 97°
2026-05-05 04:50 62.76038 -36.75493 37269 ft 523 kts 97°
2026-05-05 04:51 62.74693 -36.59955 37257 ft 523 kts 97°
2026-05-05 04:51 62.73323 -36.44347 37271 ft 523 kts 97°
2026-05-05 04:52 62.71941 -36.28809 37269 ft 524 kts 97°
2026-05-05 04:52 62.70534 -36.13202 37257 ft 525 kts 98°
2026-05-05 04:53 62.69106 -35.97572 37257 ft 525 kts 98°
2026-05-05 04:53 62.67671 -35.82074 37253 ft 525 kts 98°
2026-05-05 04:54 62.66210 -35.66485 37239 ft 525 kts 98°
2026-05-05 04:54 62.64738 -35.50980 37247 ft 524 kts 98°
2026-05-05 04:55 62.63245 -35.35450 37262 ft 525 kts 98°
2026-05-05 04:55 62.61740 -35.19989 37253 ft 526 kts 98°
2026-05-05 04:56 62.60201 -35.04372 37240 ft 527 kts 98°
2026-05-05 04:56 62.58655 -34.88876 37250 ft 527 kts 99°
2026-05-05 04:57 62.57080 -34.73282 37249 ft 528 kts 99°
2026-05-05 04:57 62.55491 -34.57738 37237 ft 527 kts 99°
2026-05-05 04:58 62.53892 -34.42276 37241 ft 526 kts 99°
2026-05-05 04:58 62.52280 -34.26869 37252 ft 527 kts 99°
2026-05-05 04:59 62.50648 -34.11446 37244 ft 528 kts 99°
2026-05-05 04:59 62.48986 -33.95926 37238 ft 528 kts 99°
2026-05-05 05:00 62.47307 -33.80428 37239 ft 529 kts 99°
2026-05-05 05:00 62.45619 -33.65020 37240 ft 528 kts 99°
2026-05-05 05:01 62.43907 -33.49563 37238 ft 528 kts 99°
2026-05-05 05:01 62.42181 -33.34142 37241 ft 528 kts 100°
2026-05-05 05:02 62.40739 -33.21401 37264 ft 528 kts 100°
2026-05-05 05:02 62.38973 -33.05939 37242 ft 529 kts 100°
2026-05-05 05:03 62.37202 -32.90608 37236 ft 529 kts 100°
2026-05-05 05:03 62.35401 -32.75175 37233 ft 528 kts 100°
2026-05-05 05:04 62.33598 -32.59899 37239 ft 528 kts 101°
2026-05-05 05:04 62.31783 -32.44671 37243 ft 527 kts 101°
2026-05-05 05:05 62.29942 -32.29380 37249 ft 527 kts 101°
2026-05-05 05:05 62.28090 -32.14164 37255 ft 528 kts 101°
2026-05-05 05:06 62.26210 -31.98864 37247 ft 528 kts 101°
2026-05-05 05:06 62.24323 -31.83674 37242 ft 528 kts 101°
2026-05-05 05:07 62.22417 -31.68482 37250 ft 527 kts 101°
2026-05-05 05:07 62.20503 -31.53377 37250 ft 526 kts 102°
2026-05-05 05:08 62.18564 -31.38220 37246 ft 526 kts 102°
2026-05-05 05:08 62.16618 -31.23155 37254 ft 526 kts 102°
2026-05-05 05:09 62.14656 -31.08115 37251 ft 526 kts 102°
2026-05-05 05:09 62.12674 -30.93065 37249 ft 526 kts 102°
2026-05-05 05:10 62.10666 -30.77962 37246 ft 526 kts 102°
2026-05-05 05:10 62.08657 -30.62992 37263 ft 525 kts 102°
2026-05-05 05:11 62.06634 -30.48056 37255 ft 525 kts 103°
2026-05-05 05:11 62.04601 -30.33185 37256 ft 525 kts 103°
2026-05-05 05:12 62.02537 -30.18223 37247 ft 525 kts 103°
2026-05-05 05:12 62.00474 -30.03383 37252 ft 525 kts 103°
2026-05-05 05:13 61.98302 -29.88481 37256 ft 524 kts 105°
2026-05-05 05:13 61.96017 -29.73841 37258 ft 523 kts 105°
2026-05-05 05:14 61.93709 -29.59215 37267 ft 523 kts 105°
2026-05-05 05:14 61.91409 -29.44612 37270 ft 523 kts 105°
2026-05-05 05:15 61.89093 -29.29948 37265 ft 523 kts 105°
2026-05-05 05:15 61.86774 -29.15369 37270 ft 523 kts 105°
2026-05-05 05:16 61.84433 -29.00778 37278 ft 523 kts 106°
2026-05-05 05:16 61.82086 -28.86285 37274 ft 521 kts 106°
2026-05-05 05:17 61.79713 -28.71745 37274 ft 520 kts 106°
2026-05-05 05:17 61.77352 -28.57392 37273 ft 520 kts 106°
2026-05-05 05:18 61.74959 -28.42956 37274 ft 520 kts 107°
2026-05-05 05:18 61.72548 -28.28527 37278 ft 520 kts 107°
2026-05-05 05:19 61.70134 -28.14191 37277 ft 521 kts 107°
2026-05-05 05:19 61.67702 -27.99859 37304 ft 521 kts 107°
2026-05-05 05:20 61.65242 -27.85475 37282 ft 521 kts 107°
2026-05-05 05:20 61.62763 -27.71099 37282 ft 521 kts 108°
2026-05-05 05:21 61.60296 -27.56895 37287 ft 520 kts 108°
2026-05-05 05:21 61.57796 -27.42608 37283 ft 520 kts 108°
2026-05-05 05:22 61.55283 -27.28353 37285 ft 519 kts 108°
2026-05-05 05:22 61.52769 -27.14206 37287 ft 518 kts 108°
2026-05-05 05:23 61.50246 -27.00105 37324 ft 518 kts 108°
2026-05-05 05:23 61.47689 -26.85920 37292 ft 519 kts 109°
2026-05-05 05:24 61.45134 -26.71857 37297 ft 518 kts 109°
2026-05-05 05:24 61.42564 -26.57808 37291 ft 518 kts 109°
2026-05-05 05:25 61.39971 -26.43740 37294 ft 517 kts 109°
2026-05-05 05:25 61.37384 -26.29802 37297 ft 517 kts 109°
2026-05-05 05:26 61.34781 -26.15879 37294 ft 517 kts 109°
2026-05-05 05:26 61.32147 -26.01890 37330 ft 517 kts 110°
2026-05-05 05:27 61.29511 -25.87991 37301 ft 517 kts 110°
2026-05-05 05:27 61.25528 -25.67175 37301 ft 516 kts 110°
2026-05-05 05:28 61.22856 -25.53331 37301 ft 515 kts 110°
2026-05-05 05:28 61.20185 -25.39583 37304 ft 515 kts 110°
2026-05-05 05:29 61.17489 -25.25807 37309 ft 515 kts 110°
2026-05-05 05:29 61.14788 -25.12101 37307 ft 515 kts 110°
2026-05-05 05:30 61.12060 -24.98348 37325 ft 516 kts 111°
2026-05-05 05:30 61.09316 -24.84614 37310 ft 515 kts 111°
2026-05-05 05:31 61.06588 -24.71048 37309 ft 514 kts 111°
2026-05-05 05:31 61.03821 -24.57383 37310 ft 514 kts 111°
2026-05-05 05:32 61.01066 -24.43867 37315 ft 513 kts 111°
2026-05-05 05:32 60.98275 -24.30265 37315 ft 513 kts 111°
2026-05-05 05:33 60.95491 -24.16783 37315 ft 514 kts 111°
2026-05-05 05:33 60.92678 -24.03255 37340 ft 513 kts 112°
2026-05-05 05:34 60.89872 -23.89846 37317 ft 513 kts 112°
2026-05-05 05:34 60.87028 -23.76345 37320 ft 513 kts 112°
2026-05-05 05:35 60.84196 -23.62991 37324 ft 512 kts 112°
2026-05-05 05:35 60.81351 -23.49658 37324 ft 512 kts 112°
2026-05-05 05:36 60.78466 -23.36223 37308 ft 512 kts 113°
2026-05-05 05:36 60.75594 -23.22938 37321 ft 512 kts 113°
2026-05-05 05:37 60.72714 -23.09696 37357 ft 512 kts 113°
2026-05-05 05:37 60.69800 -22.96381 37325 ft 512 kts 113°
2026-05-05 05:38 60.66870 -22.83082 37324 ft 512 kts 114°
2026-05-05 05:38 60.63945 -22.69890 37325 ft 512 kts 114°
2026-05-05 05:39 60.61012 -22.56739 37307 ft 512 kts 114°
2026-05-05 05:39 60.58049 -22.43540 37329 ft 512 kts 114°
2026-05-05 05:40 60.55079 -22.30390 37328 ft 511 kts 114°
2026-05-05 05:40 60.52093 -22.17252 37332 ft 511 kts 114°
2026-05-05 05:41 60.49113 -22.04216 37325 ft 512 kts 115°
2026-05-05 05:41 60.46110 -21.91165 37334 ft 511 kts 115°
2026-05-05 05:42 60.43079 -21.78068 37311 ft 511 kts 115°
2026-05-05 05:42 60.40073 -21.65158 37333 ft 511 kts 115°
2026-05-05 05:43 60.37029 -21.52167 37335 ft 511 kts 115°
2026-05-05 05:43 60.33979 -21.39224 37336 ft 511 kts 115°
2026-05-05 05:44 60.30905 -21.26259 37310 ft 511 kts 116°
2026-05-05 05:44 60.27835 -21.13387 37330 ft 511 kts 116°
2026-05-05 05:45 60.24754 -21.00547 37312 ft 511 kts 116°
2026-05-05 05:45 60.21643 -20.87656 37323 ft 510 kts 116°
2026-05-05 05:46 60.18528 -20.74826 37324 ft 510 kts 116°
2026-05-05 05:46 60.15413 -20.62071 37324 ft 510 kts 116°
2026-05-05 05:47 60.12267 -20.49262 37323 ft 510 kts 116°
2026-05-05 05:47 60.09133 -20.36572 37331 ft 510 kts 117°
2026-05-05 05:48 60.05982 -20.23891 37311 ft 511 kts 117°
2026-05-05 05:48 60.02802 -20.11158 37325 ft 511 kts 117°
2026-05-05 05:49 59.99621 -19.98487 37329 ft 511 kts 117°
2026-05-05 05:49 59.97029 -19.87853 37326 ft 511 kts 116°
2026-05-05 05:50 59.93958 -19.75003 37314 ft 511 kts 116°
2026-05-05 05:50 59.90883 -19.62206 37307 ft 511 kts 116°
2026-05-05 05:51 59.87800 -19.49521 37296 ft 511 kts 116°
2026-05-05 05:51 59.84682 -19.36803 37316 ft 511 kts 116°
2026-05-05 05:52 59.81567 -19.24177 37314 ft 510 kts 117°
2026-05-05 05:52 59.78427 -19.11517 37305 ft 510 kts 117°
2026-05-05 05:53 59.75289 -18.98931 37309 ft 510 kts 117°
2026-05-05 05:53 59.72120 -18.86298 37305 ft 510 kts 117°
2026-05-05 05:54 59.68948 -18.73720 37292 ft 510 kts 117°
2026-05-05 05:54 59.65786 -18.61259 37293 ft 509 kts 117°
2026-05-05 05:55 59.62582 -18.48701 37297 ft 510 kts 117°
2026-05-05 05:55 59.59397 -18.36284 37300 ft 509 kts 117°
2026-05-05 05:56 59.56173 -18.23789 37290 ft 510 kts 117°
2026-05-05 05:56 59.52948 -18.11358 37273 ft 510 kts 117°
2026-05-05 05:57 59.49698 -17.98901 37269 ft 509 kts 117°
2026-05-05 05:57 59.46463 -17.86567 37277 ft 508 kts 118°
2026-05-05 05:58 59.43217 -17.74264 37295 ft 508 kts 118°
2026-05-05 05:58 59.39953 -17.61956 37273 ft 509 kts 118°
2026-05-05 05:59 59.36661 -17.49613 37270 ft 509 kts 118°
2026-05-05 05:59 59.33370 -17.37337 37262 ft 510 kts 118°
2026-05-05 06:00 59.30077 -17.25124 37249 ft 509 kts 118°
2026-05-05 06:00 59.26752 -17.12859 37287 ft 511 kts 118°
2026-05-05 06:01 59.25074 -17.06694 37538 ft 512 kts 118°
2026-05-05 06:01 59.23414 -17.00613 37922 ft 510 kts 118°
2026-05-05 06:01 59.21742 -16.94500 38324 ft 509 kts 118°
2026-05-05 06:01 59.20071 -16.88412 38717 ft 508 kts 118°
2026-05-05 06:02 59.18393 -16.82311 38995 ft 508 kts 118°
2026-05-05 06:02 59.16735 -16.76301 39226 ft 509 kts 118°
2026-05-05 06:02 59.15049 -16.70206 39457 ft 508 kts 118°
2026-05-05 06:02 59.13363 -16.64127 39693 ft 508 kts 118°
2026-05-05 06:03 59.11695 -16.58129 39926 ft 509 kts 118°
2026-05-05 06:03 59.10003 -16.52058 40156 ft 508 kts 118°
2026-05-05 06:03 59.08318 -16.46030 40405 ft 507 kts 118°
2026-05-05 06:03 59.06624 -16.39986 40626 ft 508 kts 118°
2026-05-05 06:04 59.04929 -16.33957 40828 ft 508 kts 118°
2026-05-05 06:04 59.03256 -16.28019 41027 ft 508 kts 118°
2026-05-05 06:04 59.01573 -16.22059 41152 ft 510 kts 118°
2026-05-05 06:04 58.99858 -16.16006 41184 ft 512 kts 118°
2026-05-05 06:05 58.96432 -16.03956 41240 ft 509 kts 119°
2026-05-05 06:05 58.93025 -15.92036 41218 ft 507 kts 119°
2026-05-05 06:06 58.89590 -15.80082 41216 ft 506 kts 119°
2026-05-05 06:06 58.86171 -15.68246 41220 ft 505 kts 119°
2026-05-05 06:07 58.82722 -15.56366 41220 ft 506 kts 119°
2026-05-05 06:07 58.79284 -15.44584 41218 ft 507 kts 119°
2026-05-05 06:08 58.75818 -15.32766 41216 ft 508 kts 120°
2026-05-05 06:08 58.72332 -15.20940 41220 ft 509 kts 120°
2026-05-05 06:09 58.68821 -15.09093 41206 ft 509 kts 120°
2026-05-05 06:09 58.65300 -14.97269 41211 ft 508 kts 120°
2026-05-05 06:10 58.61783 -14.85521 41209 ft 508 kts 120°
2026-05-05 06:10 58.58261 -14.73813 41208 ft 508 kts 120°
2026-05-05 06:11 58.54709 -14.62069 41210 ft 508 kts 120°
2026-05-05 06:11 58.51168 -14.50417 41207 ft 508 kts 120°
2026-05-05 06:12 58.47593 -14.38710 41203 ft 508 kts 121°
2026-05-05 06:12 58.44025 -14.27086 41202 ft 508 kts 121°
2026-05-05 06:13 58.40505 -14.15676 41202 ft 508 kts 121°
2026-05-05 06:13 58.36903 -14.04057 41202 ft 508 kts 121°
2026-05-05 06:14 58.33307 -13.92514 41203 ft 509 kts 121°
2026-05-05 06:14 58.29668 -13.80891 41202 ft 510 kts 121°
2026-05-05 06:15 58.26049 -13.69388 41202 ft 511 kts 121°
2026-05-05 06:15 58.22402 -13.57851 41200 ft 511 kts 121°
2026-05-05 06:16 58.18749 -13.46355 41198 ft 511 kts 121°
2026-05-05 06:16 58.15072 -13.34840 41195 ft 511 kts 121°
2026-05-05 06:17 58.11378 -13.23327 41196 ft 511 kts 122°
2026-05-05 06:17 58.07664 -13.11805 41197 ft 511 kts 122°
2026-05-05 06:18 58.03974 -13.00415 41196 ft 510 kts 122°
2026-05-05 06:18 58.00254 -12.88990 41187 ft 510 kts 122°
2026-05-05 06:19 57.96525 -12.77591 41188 ft 510 kts 122°
2026-05-05 06:19 57.92806 -12.66274 41186 ft 510 kts 122°
2026-05-05 06:20 57.89049 -12.54898 41184 ft 510 kts 122°
2026-05-05 06:20 57.85308 -12.43625 41172 ft 510 kts 122°
2026-05-05 06:21 57.81544 -12.32337 41181 ft 509 kts 122°
2026-05-05 06:21 57.77790 -12.21131 41189 ft 509 kts 123°
2026-05-05 06:22 57.74026 -12.09948 41180 ft 509 kts 123°
2026-05-05 06:22 57.70224 -11.98707 41176 ft 510 kts 123°
2026-05-05 06:23 57.66444 -11.87581 41173 ft 510 kts 123°
2026-05-05 06:23 57.62617 -11.76369 41164 ft 509 kts 123°
2026-05-05 06:24 57.58811 -11.65273 41168 ft 509 kts 123°
2026-05-05 06:24 57.54989 -11.54179 41168 ft 508 kts 123°
2026-05-05 06:25 57.51171 -11.43150 41171 ft 508 kts 123°
2026-05-05 06:25 57.47327 -11.32096 41165 ft 509 kts 123°
2026-05-05 06:26 57.43480 -11.21084 41163 ft 509 kts 123°
2026-05-05 06:26 57.39635 -11.10130 41155 ft 508 kts 124°
2026-05-05 06:27 57.33853 -10.93749 41153 ft 507 kts 124°
2026-05-05 06:28 57.29975 -10.82823 41158 ft 507 kts 124°
2026-05-05 06:28 57.26085 -10.71914 41161 ft 507 kts 124°
2026-05-05 06:29 57.22190 -10.61042 41151 ft 508 kts 124°
2026-05-05 06:29 57.18308 -10.50252 41144 ft 507 kts 124°
2026-05-05 06:30 57.14379 -10.39383 41145 ft 507 kts 124°
2026-05-05 06:30 57.10468 -10.28607 41151 ft 507 kts 124°
2026-05-05 06:31 57.06554 -10.17870 41137 ft 507 kts 124°
2026-05-05 06:31 57.02653 -10.07166 41138 ft 507 kts 122°
2026-05-05 06:32 56.99474 -9.95545 41147 ft 508 kts 111°
2026-05-05 06:32 56.97409 -9.83254 41138 ft 507 kts 104°
2026-05-05 06:33 56.95629 -9.70719 41131 ft 507 kts 105°
2026-05-05 06:33 56.93732 -9.58317 41131 ft 507 kts 109°
2026-05-05 06:34 56.90547 -9.46918 41147 ft 505 kts 126°
2026-05-05 06:34 56.85951 -9.37209 41148 ft 503 kts 136°
2026-05-05 06:35 56.81039 -9.28140 41128 ft 504 kts 136°
2026-05-05 06:35 56.76094 -9.18987 41114 ft 504 kts 135°
2026-05-05 06:36 56.71211 -9.09866 41117 ft 504 kts 135°
2026-05-05 06:36 56.66314 -9.00704 41115 ft 504 kts 135°
2026-05-05 06:37 56.61431 -8.91599 41115 ft 504 kts 135°
2026-05-05 06:37 56.56547 -8.82537 41112 ft 503 kts 135°
2026-05-05 06:38 56.51662 -8.73511 41113 ft 503 kts 136°
2026-05-05 06:38 56.47569 -8.65976 41126 ft 502 kts 136°
2026-05-05 06:39 56.42679 -8.57008 41109 ft 502 kts 136°
2026-05-05 06:39 56.37765 -8.48028 41102 ft 502 kts 136°
2026-05-05 06:40 56.32830 -8.39046 41103 ft 502 kts 136°
2026-05-05 06:40 56.27924 -8.30152 41108 ft 502 kts 136°
2026-05-05 06:41 56.22987 -8.21236 41110 ft 501 kts 136°
2026-05-05 06:41 56.18070 -8.12389 41110 ft 501 kts 136°
2026-05-05 06:42 56.13158 -8.03587 41110 ft 501 kts 136°
2026-05-05 06:42 56.08235 -7.94798 41107 ft 501 kts 136°
2026-05-05 06:43 56.03278 -7.85982 41093 ft 500 kts 136°
2026-05-05 06:43 55.98357 -7.77263 41100 ft 500 kts 136°
2026-05-05 06:44 55.93395 -7.68506 41101 ft 500 kts 136°
2026-05-05 06:44 55.88461 -7.59831 41099 ft 500 kts 136°
2026-05-05 06:45 55.83498 -7.51137 41100 ft 500 kts 137°
2026-05-05 06:45 55.78547 -7.42498 41097 ft 500 kts 137°
2026-05-05 06:46 55.73580 -7.33863 41100 ft 500 kts 137°
2026-05-05 06:46 55.68619 -7.25270 41105 ft 500 kts 137°
2026-05-05 06:47 55.63616 -7.16638 41084 ft 500 kts 137°
2026-05-05 06:47 55.58662 -7.08123 41091 ft 500 kts 137°
2026-05-05 06:48 55.53654 -6.99545 41088 ft 500 kts 137°
2026-05-05 06:48 55.48665 -6.91034 41089 ft 499 kts 137°
2026-05-05 06:49 55.43656 -6.82518 41086 ft 499 kts 137°
2026-05-05 06:49 55.38655 -6.74048 41088 ft 499 kts 137°
2026-05-05 06:50 55.33662 -6.65624 41072 ft 499 kts 137°
2026-05-05 06:50 55.28648 -6.57195 41083 ft 498 kts 137°
2026-05-05 06:51 55.23653 -6.48828 41089 ft 498 kts 137°
2026-05-05 06:51 55.18613 -6.40416 41084 ft 499 kts 137°
2026-05-05 06:52 55.13620 -6.32115 41078 ft 499 kts 138°
2026-05-05 06:52 55.08581 -6.23766 41073 ft 499 kts 138°
2026-05-05 06:53 55.03541 -6.15446 41077 ft 498 kts 138°
2026-05-05 06:53 54.98495 -6.07148 41069 ft 498 kts 138°
2026-05-05 06:54 54.93482 -5.98932 41077 ft 497 kts 138°
2026-05-05 06:54 54.88455 -5.90724 41075 ft 497 kts 138°
2026-05-05 06:55 54.83387 -5.82479 41065 ft 497 kts 138°
2026-05-05 06:55 54.78327 -5.74277 41072 ft 497 kts 138°
2026-05-05 06:56 54.73298 -5.66153 41075 ft 496 kts 138°
2026-05-05 06:56 54.68248 -5.58025 41067 ft 497 kts 138°
2026-05-05 06:57 54.63169 -5.49879 41073 ft 497 kts 138°
2026-05-05 06:57 54.58124 -5.41815 41064 ft 495 kts 138°
2026-05-05 06:58 54.53058 -5.33747 41065 ft 494 kts 139°
2026-05-05 06:58 54.48027 -5.25763 41064 ft 494 kts 139°
2026-05-05 06:59 54.42999 -5.17813 41066 ft 493 kts 139°
2026-05-05 06:59 54.37925 -5.09816 41052 ft 493 kts 139°
2026-05-05 07:00 54.32872 -5.01882 41056 ft 493 kts 139°
2026-05-05 07:00 54.27799 -4.93944 41061 ft 493 kts 139°
2026-05-05 07:01 54.22750 -4.86069 41062 ft 493 kts 139°
2026-05-05 07:01 54.17655 -4.78152 41056 ft 493 kts 139°
2026-05-05 07:02 54.12600 -4.70322 41055 ft 493 kts 139°
2026-05-05 07:02 54.07498 -4.62446 41072 ft 492 kts 139°
2026-05-05 07:03 54.02435 -4.54658 41076 ft 492 kts 139°
2026-05-05 07:03 53.97377 -4.46902 41070 ft 491 kts 139°
2026-05-05 07:04 53.92302 -4.39079 41060 ft 492 kts 136°
2026-05-05 07:04 53.87887 -4.30286 41051 ft 493 kts 125°
2026-05-05 07:05 53.84073 -4.20602 41055 ft 493 kts 125°
2026-05-05 07:05 53.80170 -4.11024 41050 ft 493 kts 126°
2026-05-05 07:06 53.76247 -4.01567 41060 ft 493 kts 126°
2026-05-05 07:06 53.72316 -3.92102 41052 ft 493 kts 126°
2026-05-05 07:07 53.68374 -3.82619 41063 ft 493 kts 126°
2026-05-05 07:07 53.64420 -3.73139 41046 ft 492 kts 126°
2026-05-05 07:08 53.60473 -3.63715 41062 ft 492 kts 126°
2026-05-05 07:08 53.56528 -3.54319 41064 ft 491 kts 126°
2026-05-05 07:09 53.52590 -3.44964 41059 ft 491 kts 126°
2026-05-05 07:09 53.48619 -3.35565 41042 ft 491 kts 126°
2026-05-05 07:10 53.44668 -3.26246 41043 ft 491 kts 126°
2026-05-05 07:10 53.40702 -3.16921 41040 ft 492 kts 126°
2026-05-05 07:11 53.36672 -3.07621 41060 ft 492 kts 127°
2026-05-05 07:11 53.32573 -2.98492 41040 ft 492 kts 128°
2026-05-05 07:12 53.28479 -2.89373 41041 ft 492 kts 128°
2026-05-05 07:12 53.24370 -2.80211 41038 ft 492 kts 128°
2026-05-05 07:13 53.20292 -2.71132 41055 ft 491 kts 128°
2026-05-05 07:13 53.16166 -2.61987 41050 ft 490 kts 128°
2026-05-05 07:14 53.12099 -2.52909 41041 ft 490 kts 125°
2026-05-05 07:14 53.08319 -2.43503 41035 ft 490 kts 124°
2026-05-05 07:15 53.04513 -2.34087 41050 ft 489 kts 126°
2026-05-05 07:15 53.02401 -2.29752 41027 ft 487 kts 139°
2026-05-05 07:15 52.99672 -2.26448 41058 ft 481 kts 150°
2026-05-05 07:16 52.93945 -2.20713 41058 ft 483 kts 150°
2026-05-05 07:16 52.88180 -2.14859 41049 ft 486 kts 149°
2026-05-05 07:16 52.85358 -2.11943 40915 ft 475 kts 149°
2026-05-05 07:17 52.82603 -2.09078 40203 ft 463 kts 149°
2026-05-05 07:17 52.79901 -2.06261 38998 ft 465 kts 149°
2026-05-05 07:17 52.77152 -2.03402 37456 ft 468 kts 148°
2026-05-05 07:17 52.74392 -2.00536 35868 ft 469 kts 147°
2026-05-05 07:18 52.71634 -1.97678 34343 ft 466 kts 146°
2026-05-05 07:18 52.68878 -1.94825 32464 ft 466 kts 147°
2026-05-05 07:18 52.66189 -1.92042 30648 ft 468 kts 148°
2026-05-05 07:18 52.63388 -1.89148 29272 ft 477 kts 148°
2026-05-05 07:19 52.60580 -1.86257 28474 ft 472 kts 149°
2026-05-05 07:19 52.57817 -1.83418 27887 ft 464 kts 149°
2026-05-05 07:19 52.55089 -1.80617 27424 ft 455 kts 149°
2026-05-05 07:19 52.52452 -1.77914 26946 ft 447 kts 149°
2026-05-05 07:20 52.49809 -1.75208 26378 ft 441 kts 149°
2026-05-05 07:20 52.47215 -1.72558 25782 ft 437 kts 149°
2026-05-05 07:20 52.44663 -1.69953 25158 ft 435 kts 149°
2026-05-05 07:20 52.42090 -1.67332 24546 ft 432 kts 150°
2026-05-05 07:21 52.39541 -1.64737 23967 ft 429 kts 150°
2026-05-05 07:21 52.37060 -1.62215 23389 ft 426 kts 150°
2026-05-05 07:21 52.34539 -1.59656 22758 ft 422 kts 150°
2026-05-05 07:21 52.32078 -1.57161 22160 ft 418 kts 150°
2026-05-05 07:22 52.29607 -1.54659 21554 ft 415 kts 150°
2026-05-05 07:22 52.27156 -1.52179 20986 ft 411 kts 149°
2026-05-05 07:22 52.24762 -1.49762 20525 ft 407 kts 149°
2026-05-05 07:22 52.22363 -1.47342 20036 ft 403 kts 149°
2026-05-05 07:23 52.20054 -1.44765 19504 ft 401 kts 143°
2026-05-05 07:23 52.17904 -1.41834 18983 ft 400 kts 140°
2026-05-05 07:23 52.15858 -1.38848 18525 ft 398 kts 139°
2026-05-05 07:23 52.13792 -1.35821 18006 ft 396 kts 139°
2026-05-05 07:24 52.12428 -1.33847 17674 ft 395 kts 139°
2026-05-05 07:24 52.09690 -1.29956 17042 ft 393 kts 140°
2026-05-05 07:24 52.08281 -1.27981 16709 ft 392 kts 140°
2026-05-05 07:24 52.06244 -1.25143 16262 ft 391 kts 140°
2026-05-05 07:25 52.04175 -1.22272 15817 ft 390 kts 140°
2026-05-05 07:25 52.02117 -1.19424 15455 ft 387 kts 140°
2026-05-05 07:25 52.00057 -1.16574 15103 ft 386 kts 140°
2026-05-05 07:25 51.98024 -1.13764 15023 ft 387 kts 140°
2026-05-05 07:26 51.95987 -1.10954 15020 ft 386 kts 140°
2026-05-05 07:26 51.93940 -1.08132 14861 ft 381 kts 140°
2026-05-05 07:26 51.91936 -1.05373 14487 ft 381 kts 140°
2026-05-05 07:26 51.89904 -1.02577 14066 ft 382 kts 140°
2026-05-05 07:27 51.87880 -0.99797 13682 ft 383 kts 140°
2026-05-05 07:27 51.85894 -0.97023 13354 ft 373 kts 136°
2026-05-05 07:27 51.84339 -0.93719 12758 ft 366 kts 116°
2026-05-05 07:27 51.83294 -0.90014 12085 ft 364 kts 114°
2026-05-05 07:28 51.82247 -0.86383 11225 ft 357 kts 115°
2026-05-05 07:28 51.81161 -0.82757 10320 ft 355 kts 116°
2026-05-05 07:28 51.80066 -0.79159 9295 ft 355 kts 116°
2026-05-05 07:28 51.78992 -0.75655 8424 ft 350 kts 116°
2026-05-05 07:29 51.77899 -0.72100 7674 ft 355 kts 116°
2026-05-05 07:29 51.76819 -0.68591 7376 ft 344 kts 115°
2026-05-05 07:29 51.75773 -0.65193 7164 ft 331 kts 115°
2026-05-05 07:29 51.74778 -0.61971 6995 ft 319 kts 115°
2026-05-05 07:30 51.73816 -0.58863 6990 ft 301 kts 116°
2026-05-05 07:30 51.71217 -0.54535 6947 ft 262 kts 169°
2026-05-05 07:30 51.69448 -0.54535 6805 ft 253 kts 185°
2026-05-05 07:31 51.67688 -0.54616 6669 ft 252 kts 180°
2026-05-05 07:31 51.65934 -0.54564 6489 ft 251 kts 178°
2026-05-05 07:31 51.64191 -0.54488 6343 ft 246 kts 180°
2026-05-05 07:31 51.62534 -0.54970 5931 ft 247 kts 205°
2026-05-05 07:32 51.61188 -0.56606 5625 ft 242 kts 231°
2026-05-05 07:32 51.60401 -0.58962 5288 ft 237 kts 253°
2026-05-05 07:32 51.60099 -0.61478 5035 ft 224 kts 265°
2026-05-05 07:32 51.59959 -0.63959 4678 ft 220 kts 268°
2026-05-05 07:33 51.59841 -0.66377 4312 ft 218 kts 267°
2026-05-05 07:33 51.59706 -0.68802 3942 ft 216 kts 267°
2026-05-05 07:33 51.59565 -0.71202 3579 ft 214 kts 267°
2026-05-05 07:33 51.59421 -0.73581 3189 ft 212 kts 267°
2026-05-05 07:34 51.59259 -0.75917 3010 ft 216 kts 262°
2026-05-05 07:34 51.58628 -0.78118 2987 ft 220 kts 231°
2026-05-05 07:34 51.57366 -0.79494 2995 ft 221 kts 198°
2026-05-05 07:34 51.55868 -0.79704 2997 ft 219 kts 175°
2026-05-05 07:35 51.54329 -0.79574 3002 ft 221 kts 176°
2026-05-05 07:35 51.52838 -0.79477 2983 ft 208 kts 175°
2026-05-05 07:35 51.51432 -0.79389 2970 ft 197 kts 175°
2026-05-05 07:35 51.50075 -0.79290 2984 ft 195 kts 172°
2026-05-05 07:36 51.48821 -0.78632 2978 ft 189 kts 138°
2026-05-05 07:36 51.48148 -0.76952 3010 ft 176 kts 99°
2026-05-05 07:36 51.47938 -0.75019 3002 ft 176 kts 94°
2026-05-05 07:36 51.47789 -0.73111 3011 ft 169 kts 92°
2026-05-05 07:37 51.47664 -0.71260 2929 ft 169 kts 90°
2026-05-05 07:37 51.47614 -0.69395 2697 ft 165 kts 86°
2026-05-05 07:37 51.47610 -0.67569 2474 ft 162 kts 85°
2026-05-05 07:37 51.47618 -0.65810 2273 ft 151 kts 84°
2026-05-05 07:38 51.47628 -0.64148 2058 ft 149 kts 84°
2026-05-05 07:38 51.47640 -0.62499 1860 ft 148 kts 84°
2026-05-05 07:38 51.47651 -0.60855 1653 ft 146 kts 84°
2026-05-05 07:38 51.47663 -0.59223 1451 ft 146 kts 85°
2026-05-05 07:39 51.47672 -0.57587 1253 ft 146 kts 85°
2026-05-05 07:39 51.47683 -0.55968 1047 ft 147 kts 86°
2026-05-05 07:39 51.47707 -0.54332 806 ft 145 kts 84°
2026-05-05 07:39 51.47730 -0.52685 673 ft 148 kts 85°
2026-05-05 07:40 51.47741 -0.51034 486 ft 151 kts 86°
2026-05-05 07:40 51.47750 -0.49356 273 ft 150 kts 86°
2026-05-05 07:40 51.47749 -0.47801 112 ft 125 kts 86°
2026-05-05 07:40 51.47758 -0.46587 103 ft 71 kts 91°
2026-05-05 07:41 51.47759 -0.46132 97 ft 27 kts 89°
2026-05-05 07:41 51.47760 -0.45805 92 ft 29 kts 90°
2026-05-05 07:41 51.47756 -0.45575 95 ft 17 kts 98°
2026-05-05 07:41 51.47664 -0.45469 94 ft 18 kts 177°
2026-05-05 07:42 51.47596 -0.45548 96 ft 13 kts 247°
2026-05-05 07:42 51.47587 -0.45639 95 ft 0 kts 269°
2026-05-05 07:42 51.47587 -0.45673 95 ft 8 kts 270°
2026-05-05 07:42 51.47543 -0.45757 95 ft 11 kts 227°
2026-05-05 07:43 51.47521 -0.45872 96 ft 11 kts 264°
2026-05-05 07:43 51.47517 -0.46001 95 ft 12 kts 268°
2026-05-05 07:43 51.47516 -0.46166 95 ft 18 kts 270°
2026-05-05 07:43 51.47516 -0.46380 94 ft 20 kts 270°
2026-05-05 07:44 51.47515 -0.46595 96 ft 18 kts 269°
2026-05-05 07:44 51.47497 -0.46793 96 ft 18 kts 264°
2026-05-05 07:44 51.47493 -0.46994 95 ft 18 kts 269°
2026-05-05 07:44 51.47492 -0.47196 95 ft 18 kts 269°
2026-05-05 07:45 51.47491 -0.47395 94 ft 18 kts 270°
2026-05-05 07:45 51.47491 -0.47596 96 ft 17 kts 270°
2026-05-05 07:45 51.47489 -0.47761 94 ft 15 kts 268°
2026-05-05 07:45 51.47422 -0.47863 96 ft 15 kts 189°
2026-05-05 07:46 51.47316 -0.47870 98 ft 15 kts 179°
2026-05-05 07:46 51.47209 -0.47869 95 ft 15 kts 180°
2026-05-05 07:46 51.47104 -0.47868 94 ft 15 kts 181°
2026-05-05 07:46 51.47057 -0.47937 97 ft 8 kts 254°
2026-05-05 07:47 51.47053 -0.48005 96 ft 5 kts 268°
2026-05-05 07:47 51.47053 -0.48018 96 ft 3 kts 269°
2026-05-05 07:47 51.47053 -0.48024 96 ft 0 kts 269°